CPA890 VHHX-KJFK

Flight info

Callsign CPA890
Flight time N/A
Altitude 33000
Route ENVAR M750 IMPAL Y755 CARDS DCT HIOTI DCT CBE Y121 SWING Y88 AKAGI/N0466F350 Y88 DAIGO Y889 OATIS R580 OPAKE DCT MORLY/N0460F370 R338 MARCC G583 ENM DCT MCG DCT GKN J124 ORT NCA15 EMSOW DCT 62N130W/N0460F390 60N120W 5730N11000W 53N100W DCT GABOV DCT TVC/N0463F410 DCT TWIGS DCT JHW J106 MAGIO Q476 WLKES PUCKY1
Aircraft A343/H-SDE2E3FGHIJ4J5M1RWXY/LB1D1

Departure

Time 2026-05-07 01:14
Airport Hong Kong International Airport Kai Tak (VHHX)

Arrival

Time N/A
Airport John F. Kennedy International Airport (KJFK)
Time Latitude Longitude Altitude Speed Heading
2026-05-07 00:51 22.32896 114.19601 35 ft 0 kts 314°
2026-05-07 01:04 22.32891 114.19607 36 ft 4 kts 314°
2026-05-07 01:04 22.32872 114.19628 37 ft 4 kts 316°
2026-05-07 01:04 22.32857 114.19643 37 ft 3 kts 316°
2026-05-07 01:05 22.32845 114.19659 36 ft 4 kts 249°
2026-05-07 01:05 22.32860 114.19680 35 ft 4 kts 224°
2026-05-07 01:05 22.32879 114.19701 36 ft 4 kts 224°
2026-05-07 01:05 22.32885 114.19706 37 ft 0 kts 224°
2026-05-07 01:09 22.32883 114.19705 37 ft 1 kts 224°
2026-05-07 01:09 22.32873 114.19695 37 ft 2 kts 224°
2026-05-07 01:10 22.32860 114.19680 37 ft 3 kts 223°
2026-05-07 01:10 22.32842 114.19662 37 ft 4 kts 224°
2026-05-07 01:10 22.32818 114.19638 37 ft 6 kts 223°
2026-05-07 01:10 22.32781 114.19599 37 ft 9 kts 224°
2026-05-07 01:11 22.32736 114.19551 37 ft 9 kts 225°
2026-05-07 01:11 22.32696 114.19507 37 ft 8 kts 225°
2026-05-07 01:11 22.32659 114.19469 37 ft 7 kts 224°
2026-05-07 01:11 22.32621 114.19428 37 ft 9 kts 224°
2026-05-07 01:12 22.32572 114.19372 37 ft 11 kts 238°
2026-05-07 01:12 22.32550 114.19298 37 ft 9 kts 250°
2026-05-07 01:12 22.32509 114.19284 37 ft 6 kts 165°
2026-05-07 01:12 22.32471 114.19318 37 ft 8 kts 129°
2026-05-07 01:13 22.32451 114.19343 37 ft 0 kts 133°
2026-05-07 01:13 22.32426 114.19371 36 ft 22 kts 133°
2026-05-07 01:13 22.32204 114.19618 37 ft 72 kts 134°
2026-05-07 01:13 22.31734 114.20145 37 ft 122 kts 134°
2026-05-07 01:14 22.31044 114.20915 37 ft 162 kts 134°
2026-05-07 01:14 22.30218 114.21803 471 ft 165 kts 132°
2026-05-07 01:14 22.29406 114.22707 816 ft 177 kts 131°
2026-05-07 01:14 22.28530 114.23699 1145 ft 188 kts 133°
2026-05-07 01:15 22.27588 114.24756 1372 ft 203 kts 132°
2026-05-07 01:15 22.26545 114.25928 1470 ft 227 kts 133°
2026-05-07 01:15 22.25426 114.27183 1667 ft 244 kts 132°
2026-05-07 01:15 22.24203 114.28551 1893 ft 261 kts 133°
2026-05-07 01:16 22.22931 114.29977 2417 ft 265 kts 133°
2026-05-07 01:16 22.21642 114.31413 2970 ft 269 kts 135°
2026-05-07 01:16 22.20322 114.32879 3466 ft 276 kts 135°
2026-05-07 01:16 22.18975 114.34388 4104 ft 282 kts 136°
2026-05-07 01:17 22.17603 114.35903 4742 ft 284 kts 136°
2026-05-07 01:17 22.16239 114.37415 5252 ft 286 kts 136°
2026-05-07 01:17 22.14841 114.38968 5764 ft 292 kts 136°
2026-05-07 01:17 22.13406 114.40551 6397 ft 298 kts 136°
2026-05-07 01:18 22.11944 114.42140 6818 ft 300 kts 136°
2026-05-07 01:18 22.10486 114.43782 6955 ft 305 kts 136°
2026-05-07 01:18 22.09028 114.45426 6964 ft 303 kts 136°
2026-05-07 01:18 22.07562 114.47058 6973 ft 303 kts 136°
2026-05-07 01:19 22.06091 114.48692 6977 ft 303 kts 136°
2026-05-07 01:19 22.04623 114.50320 6979 ft 303 kts 136°
2026-05-07 01:19 22.03159 114.51951 7025 ft 303 kts 136°
2026-05-07 01:19 22.01708 114.53561 7262 ft 304 kts 137°
2026-05-07 01:20 22.00223 114.55203 7733 ft 307 kts 136°
2026-05-07 01:20 21.98728 114.56856 8249 ft 309 kts 136°
2026-05-07 01:20 21.97223 114.58521 8752 ft 312 kts 136°
2026-05-07 01:20 21.95700 114.60205 9225 ft 316 kts 136°
2026-05-07 01:21 21.94158 114.61911 9700 ft 319 kts 136°
2026-05-07 01:21 21.92609 114.63624 10167 ft 322 kts 136°
2026-05-07 01:21 21.91015 114.65383 10379 ft 334 kts 136°
2026-05-07 01:21 21.89447 114.67252 10537 ft 348 kts 129°
2026-05-07 01:22 21.88215 114.69542 10703 ft 362 kts 112°
2026-05-07 01:22 21.87624 114.72219 10854 ft 375 kts 95°
2026-05-07 01:22 21.87638 114.75067 11075 ft 384 kts 87°
2026-05-07 01:22 21.87800 114.77968 11325 ft 392 kts 86°
2026-05-07 01:23 21.87971 114.80912 11670 ft 395 kts 87°
2026-05-07 01:23 21.88132 114.83875 12085 ft 397 kts 87°
2026-05-07 01:23 21.88288 114.86855 12451 ft 401 kts 87°
2026-05-07 01:23 21.88439 114.89853 12854 ft 403 kts 88°
2026-05-07 01:24 21.88588 114.92834 13243 ft 405 kts 88°
2026-05-07 01:24 21.88738 114.95871 13632 ft 407 kts 88°
2026-05-07 01:24 21.88887 114.98923 13987 ft 410 kts 88°
2026-05-07 01:24 21.89036 115.01996 14318 ft 412 kts 88°
2026-05-07 01:25 21.89186 115.05089 14671 ft 414 kts 88°
2026-05-07 01:25 21.89336 115.08197 15007 ft 417 kts 88°
2026-05-07 01:25 21.89486 115.11320 15354 ft 419 kts 88°
2026-05-07 01:25 21.89636 115.14460 15686 ft 421 kts 87°
2026-05-07 01:26 21.89787 115.17618 16024 ft 424 kts 88°
2026-05-07 01:26 21.89935 115.20752 16362 ft 426 kts 87°
2026-05-07 01:26 21.90086 115.23947 16701 ft 428 kts 87°
2026-05-07 01:26 21.90236 115.27161 17038 ft 431 kts 87°
2026-05-07 01:27 21.90388 115.30393 17376 ft 433 kts 87°
2026-05-07 01:27 21.90541 115.33643 17706 ft 436 kts 87°
2026-05-07 01:27 21.90692 115.36906 18084 ft 437 kts 87°
2026-05-07 01:27 21.90842 115.40184 18405 ft 440 kts 87°
2026-05-07 01:28 21.90994 115.43481 18697 ft 442 kts 87°
2026-05-07 01:28 21.91144 115.46758 18981 ft 445 kts 87°
2026-05-07 01:28 21.91296 115.50089 19289 ft 447 kts 87°
2026-05-07 01:28 21.91447 115.53440 19593 ft 449 kts 87°
2026-05-07 01:29 21.91600 115.56808 19895 ft 451 kts 87°
2026-05-07 01:29 21.91751 115.60185 20179 ft 453 kts 87°
2026-05-07 01:29 21.91904 115.63585 20467 ft 455 kts 87°
2026-05-07 01:29 21.92056 115.66991 20757 ft 457 kts 87°
2026-05-07 01:30 21.92207 115.70415 21059 ft 458 kts 87°
2026-05-07 01:30 21.92358 115.73847 21282 ft 461 kts 88°
2026-05-07 01:30 21.92507 115.77266 21547 ft 463 kts 87°
2026-05-07 01:30 21.92659 115.80736 21824 ft 465 kts 88°
2026-05-07 01:31 21.92811 115.84227 22093 ft 467 kts 87°
2026-05-07 01:31 21.92963 115.87726 22357 ft 469 kts 87°
2026-05-07 01:31 21.93116 115.91248 22611 ft 471 kts 87°
2026-05-07 01:31 21.93267 115.94779 22858 ft 473 kts 87°
2026-05-07 01:32 21.93418 115.98326 23147 ft 475 kts 87°
2026-05-07 01:32 21.93570 116.01884 23400 ft 476 kts 87°
2026-05-07 01:32 21.93721 116.05450 23632 ft 478 kts 87°
2026-05-07 01:32 21.93872 116.09038 23840 ft 480 kts 87°
2026-05-07 01:33 21.94020 116.12591 24046 ft 482 kts 87°
2026-05-07 01:33 21.94170 116.16198 24262 ft 483 kts 87°
2026-05-07 01:33 21.94320 116.19818 24468 ft 485 kts 87°
2026-05-07 01:33 21.94470 116.23452 24689 ft 486 kts 87°
2026-05-07 01:34 21.94619 116.27094 24901 ft 487 kts 87°
2026-05-07 01:34 21.94767 116.30743 25152 ft 488 kts 87°
2026-05-07 01:34 21.94915 116.34398 25362 ft 489 kts 87°
2026-05-07 01:34 21.95063 116.38064 25564 ft 491 kts 87°
2026-05-07 01:35 21.95208 116.41697 25781 ft 492 kts 87°
2026-05-07 01:35 21.95355 116.45387 25988 ft 494 kts 87°
2026-05-07 01:35 21.95501 116.49089 26202 ft 495 kts 87°
2026-05-07 01:35 21.95647 116.52803 26412 ft 497 kts 87°
2026-05-07 01:36 21.95793 116.56523 26609 ft 498 kts 87°
2026-05-07 01:36 21.95939 116.60257 26834 ft 499 kts 87°
2026-05-07 01:36 21.96084 116.64000 27046 ft 500 kts 87°
2026-05-07 01:36 21.96227 116.67746 27233 ft 502 kts 86°
2026-05-07 01:37 21.96371 116.71511 27446 ft 503 kts 86°
2026-05-07 01:37 21.96513 116.75234 27645 ft 505 kts 86°
2026-05-07 01:37 21.96655 116.79014 27838 ft 506 kts 86°
2026-05-07 01:37 21.96797 116.82802 28024 ft 507 kts 86°
2026-05-07 01:38 21.96939 116.86604 28182 ft 509 kts 86°
2026-05-07 01:38 21.97081 116.90416 28392 ft 509 kts 86°
2026-05-07 01:38 21.97221 116.94229 28585 ft 510 kts 86°
2026-05-07 01:38 21.97361 116.98049 28774 ft 511 kts 86°
2026-05-07 01:39 21.97500 117.01871 29024 ft 510 kts 86°
2026-05-07 01:39 21.97638 117.05687 29289 ft 509 kts 86°
2026-05-07 01:39 21.97774 117.09447 29531 ft 509 kts 86°
2026-05-07 01:39 21.97910 117.13256 29712 ft 510 kts 86°
2026-05-07 01:40 21.98046 117.17072 29905 ft 510 kts 86°
2026-05-07 01:40 21.98180 117.20883 30157 ft 508 kts 86°
2026-05-07 01:40 21.98313 117.24687 30343 ft 508 kts 86°
2026-05-07 01:40 21.98445 117.28490 30494 ft 508 kts 86°
2026-05-07 01:41 21.98577 117.32296 30650 ft 508 kts 86°
2026-05-07 01:41 21.98707 117.36098 30810 ft 508 kts 86°
2026-05-07 01:41 21.98836 117.39853 30965 ft 508 kts 86°
2026-05-07 01:41 21.98969 117.43659 31118 ft 508 kts 85°
2026-05-07 01:42 21.99346 117.47436 31257 ft 506 kts 77°
2026-05-07 01:42 22.00269 117.51079 31439 ft 502 kts 66°
2026-05-07 01:42 22.01730 117.54471 31613 ft 498 kts 58°
2026-05-07 01:42 22.03448 117.57705 31749 ft 497 kts 56°
2026-05-07 01:43 22.05245 117.60891 31879 ft 497 kts 55°
2026-05-07 01:43 22.07048 117.64008 31997 ft 497 kts 55°
2026-05-07 01:43 22.08883 117.67169 32130 ft 497 kts 55°
2026-05-07 01:43 22.10707 117.70326 32271 ft 497 kts 55°
2026-05-07 01:44 22.12525 117.73496 32395 ft 497 kts 55°
2026-05-07 01:44 22.14335 117.76675 32551 ft 497 kts 55°
2026-05-07 01:44 22.16138 117.79854 32670 ft 497 kts 55°
2026-05-07 01:44 22.17942 117.83040 32786 ft 498 kts 55°
2026-05-07 01:45 22.19743 117.86230 32922 ft 498 kts 55°
2026-05-07 01:45 22.23318 117.92562 32992 ft 488 kts 55°
2026-05-07 01:46 22.26809 117.98760 32989 ft 486 kts 55°
2026-05-07 01:46 22.30345 118.04977 32991 ft 486 kts 54°
2026-05-07 01:47 22.33961 118.11136 32992 ft 485 kts 54°
2026-05-07 01:47 22.37571 118.17279 32996 ft 484 kts 54°
2026-05-07 01:48 22.41144 118.23406 32992 ft 486 kts 55°
2026-05-07 01:48 22.44682 118.29629 32988 ft 486 kts 55°
2026-05-07 01:49 22.48196 118.35874 32990 ft 486 kts 55°
2026-05-07 01:49 22.51715 118.42111 32991 ft 485 kts 55°
2026-05-07 01:50 22.55212 118.48294 32990 ft 485 kts 55°
2026-05-07 01:50 22.58732 118.54516 32991 ft 484 kts 55°
2026-05-07 01:51 22.62264 118.60719 32992 ft 484 kts 55°
2026-05-07 01:51 22.65800 118.66923 32986 ft 484 kts 55°
2026-05-07 01:52 22.69330 118.73125 32990 ft 483 kts 55°
2026-05-07 01:52 22.72824 118.79278 32988 ft 483 kts 55°
2026-05-07 01:53 22.76337 118.85471 32988 ft 483 kts 55°
2026-05-07 01:53 22.79847 118.91667 32996 ft 483 kts 55°
2026-05-07 01:54 22.83362 118.97881 32989 ft 484 kts 55°
2026-05-07 01:54 22.86839 119.04033 32992 ft 482 kts 56°
2026-05-07 01:55 22.90338 119.10234 32989 ft 482 kts 56°
2026-05-07 01:55 22.93837 119.16443 32988 ft 482 kts 56°
2026-05-07 01:56 22.97334 119.22653 32991 ft 482 kts 56°
2026-05-07 01:56 23.00827 119.28864 32994 ft 482 kts 56°
2026-05-07 01:57 23.04295 119.35039 32988 ft 483 kts 56°
2026-05-07 01:57 23.07792 119.41268 32988 ft 483 kts 56°
2026-05-07 01:58 23.11282 119.47498 32989 ft 483 kts 56°
2026-05-07 01:58 23.14767 119.53725 32986 ft 483 kts 56°
2026-05-07 01:59 23.18232 119.59924 32988 ft 483 kts 56°
2026-05-07 01:59 23.21720 119.66172 32995 ft 484 kts 56°
2026-05-07 02:00 23.25213 119.72427 32991 ft 484 kts 56°
2026-05-07 02:00 23.28705 119.78690 32990 ft 484 kts 56°
2026-05-07 02:01 23.32171 119.84914 32976 ft 484 kts 56°
2026-05-07 02:01 23.35734 119.91127 32995 ft 482 kts 50°
2026-05-07 02:02 23.40233 119.96469 32994 ft 478 kts 41°
2026-05-07 02:02 23.45036 120.01472 32983 ft 478 kts 40°
2026-05-07 02:03 23.49896 120.06429 32986 ft 479 kts 40°
2026-05-07 02:03 23.54712 120.11365 32984 ft 478 kts 40°
2026-05-07 02:04 23.59554 120.16357 32982 ft 480 kts 40°
2026-05-07 02:04 23.64402 120.21364 32986 ft 480 kts 40°
2026-05-07 02:05 23.69247 120.26377 32988 ft 480 kts 40°
2026-05-07 02:05 23.74055 120.31359 32994 ft 481 kts 40°
2026-05-07 02:06 23.78898 120.36381 32993 ft 480 kts 40°
2026-05-07 02:06 23.83742 120.41406 32998 ft 480 kts 40°
2026-05-07 02:07 23.88581 120.46435 32998 ft 481 kts 40°
2026-05-07 02:07 23.95800 120.53994 33001 ft 481 kts 41°
2026-05-07 02:08 24.00618 120.59084 33009 ft 481 kts 41°
2026-05-07 02:08 24.05436 120.64175 33015 ft 482 kts 41°
2026-05-07 02:09 24.10253 120.69268 33028 ft 481 kts 40°
2026-05-07 02:09 24.15031 120.74320 33025 ft 481 kts 40°
2026-05-07 02:10 24.19837 120.79414 33026 ft 481 kts 40°
2026-05-07 02:10 24.24642 120.84513 33029 ft 481 kts 40°
2026-05-07 02:11 24.29442 120.89610 33029 ft 480 kts 40°
2026-05-07 02:11 24.34210 120.94674 33037 ft 481 kts 40°
2026-05-07 02:12 24.39012 120.99781 33043 ft 481 kts 40°
2026-05-07 02:12 24.43524 121.05241 33042 ft 485 kts 47°
2026-05-07 02:13 24.47766 121.11008 33045 ft 485 kts 48°
2026-05-07 02:13 24.51933 121.16780 33042 ft 486 kts 48°
2026-05-07 02:14 24.56130 121.22594 33038 ft 486 kts 48°
2026-05-07 02:14 24.60336 121.28407 33038 ft 487 kts 48°
2026-05-07 02:15 24.64547 121.34236 33046 ft 487 kts 48°
2026-05-07 02:15 24.68761 121.40071 33043 ft 487 kts 48°
2026-05-07 02:16 24.72972 121.45910 33021 ft 487 kts 48°
2026-05-07 02:16 24.77176 121.51749 33010 ft 486 kts 48°
2026-05-07 02:17 24.81350 121.57551 32988 ft 488 kts 48°
2026-05-07 02:17 24.85559 121.63435 32979 ft 489 kts 48°
2026-05-07 02:18 24.89768 121.69297 32978 ft 488 kts 48°
2026-05-07 02:18 24.94085 121.74988 32989 ft 487 kts 45°
2026-05-07 02:19 24.98568 121.80573 32972 ft 487 kts 45°
2026-05-07 02:19 25.03041 121.86184 32975 ft 487 kts 45°
2026-05-07 02:20 25.07484 121.91835 32979 ft 488 kts 46°
2026-05-07 02:20 25.11920 121.97504 32987 ft 488 kts 46°
2026-05-07 02:21 25.16316 122.03150 32990 ft 489 kts 46°
2026-05-07 02:21 25.20719 122.08868 32973 ft 489 kts 46°
2026-05-07 02:22 25.25123 122.14601 32987 ft 489 kts 46°
2026-05-07 02:22 25.29532 122.20338 32999 ft 491 kts 46°
2026-05-07 02:23 25.33941 122.26086 32978 ft 489 kts 46°
2026-05-07 02:23 25.38316 122.31783 32989 ft 490 kts 46°
2026-05-07 02:24 25.42729 122.37533 32988 ft 491 kts 46°
2026-05-07 02:24 25.47141 122.43294 32988 ft 491 kts 46°
2026-05-07 02:25 25.51554 122.49068 32979 ft 491 kts 47°
2026-05-07 02:25 25.55949 122.54790 32988 ft 490 kts 46°
2026-05-07 02:26 25.60378 122.60531 32979 ft 491 kts 46°
2026-05-07 02:26 25.64812 122.66297 32989 ft 492 kts 46°
2026-05-07 02:27 25.69244 122.72075 32986 ft 492 kts 46°
2026-05-07 02:27 25.73650 122.77828 32995 ft 493 kts 46°
2026-05-07 02:28 25.78083 122.83623 32987 ft 492 kts 46°
2026-05-07 02:28 25.82513 122.89420 32991 ft 492 kts 46°
2026-05-07 02:29 25.86942 122.95220 32987 ft 494 kts 46°
2026-05-07 02:29 25.91348 123.00994 32989 ft 493 kts 46°
2026-05-07 02:30 25.95776 123.06812 32987 ft 493 kts 46°
2026-05-07 02:30 26.00203 123.12642 32987 ft 493 kts 46°
2026-05-07 02:31 26.03878 123.17489 32988 ft 493 kts 46°
2026-05-07 02:31 26.09021 123.24277 32990 ft 494 kts 46°
2026-05-07 02:32 26.13435 123.30118 32997 ft 493 kts 47°
2026-05-07 02:32 26.17825 123.35931 32991 ft 491 kts 46°
2026-05-07 02:33 26.21499 123.40792 32992 ft 494 kts 46°
2026-05-07 02:33 26.25925 123.46654 32987 ft 494 kts 46°
2026-05-07 02:34 26.31057 123.53467 32991 ft 494 kts 46°
2026-05-07 02:34 26.34754 123.58377 32990 ft 494 kts 46°
2026-05-07 02:35 26.39133 123.64216 32992 ft 495 kts 47°
2026-05-07 02:35 26.43545 123.70110 32992 ft 494 kts 46°
2026-05-07 02:36 26.47973 123.75987 32996 ft 495 kts 46°
2026-05-07 02:36 26.52385 123.81887 32993 ft 495 kts 46°
2026-05-07 02:37 26.56765 123.87757 32991 ft 495 kts 46°
2026-05-07 02:37 26.61175 123.93668 32993 ft 496 kts 46°
2026-05-07 02:38 26.65584 123.99577 32996 ft 494 kts 46°
2026-05-07 02:38 26.69993 124.05489 32997 ft 495 kts 46°
2026-05-07 02:39 26.74386 124.11364 32997 ft 495 kts 46°
2026-05-07 02:39 26.78801 124.17279 33001 ft 495 kts 46°
2026-05-07 02:40 26.83215 124.23203 33000 ft 495 kts 47°
2026-05-07 02:40 26.87630 124.29131 33008 ft 495 kts 47°
2026-05-07 02:41 26.92045 124.35067 33006 ft 498 kts 47°
2026-05-07 02:41 26.96436 124.40968 33006 ft 496 kts 47°
2026-05-07 02:42 27.00837 124.46930 33008 ft 496 kts 47°
2026-05-07 02:42 27.05241 124.52895 33005 ft 496 kts 47°
2026-05-07 02:43 27.09656 124.58865 33003 ft 497 kts 47°
2026-05-07 02:43 27.14038 124.64787 33007 ft 497 kts 47°
2026-05-07 02:44 27.18451 124.70769 33006 ft 497 kts 47°
2026-05-07 02:44 27.22858 124.76767 33007 ft 498 kts 47°
2026-05-07 02:45 27.27270 124.82753 33006 ft 499 kts 47°
2026-05-07 02:45 27.31662 124.88720 33010 ft 497 kts 47°
2026-05-07 02:46 27.36068 124.94710 33008 ft 496 kts 47°
2026-05-07 02:46 27.40472 125.00719 33012 ft 499 kts 47°
2026-05-07 02:47 27.44886 125.06721 33008 ft 497 kts 47°
2026-05-07 02:47 27.49333 125.12699 33007 ft 498 kts 46°
2026-05-07 02:48 27.53745 125.18642 33008 ft 498 kts 46°
2026-05-07 02:48 27.58185 125.24640 33007 ft 497 kts 47°
2026-05-07 02:49 27.62602 125.30627 33013 ft 497 kts 47°
2026-05-07 02:49 27.67018 125.36612 33014 ft 496 kts 47°
2026-05-07 02:50 27.71399 125.42565 33008 ft 496 kts 46°
2026-05-07 02:50 27.75810 125.48579 33003 ft 498 kts 47°
2026-05-07 02:51 27.80223 125.54602 33009 ft 498 kts 47°
2026-05-07 02:51 27.84630 125.60624 33006 ft 497 kts 47°
2026-05-07 02:52 27.89038 125.66645 33006 ft 498 kts 47°
2026-05-07 02:52 27.93407 125.72630 33005 ft 496 kts 47°
2026-05-07 02:53 27.97811 125.78667 33005 ft 498 kts 47°
2026-05-07 02:53 28.02217 125.84705 33007 ft 497 kts 47°
2026-05-07 02:54 28.06611 125.90742 33009 ft 496 kts 47°
2026-05-07 02:54 28.10975 125.96750 33011 ft 497 kts 47°
2026-05-07 02:55 28.15361 126.02804 33006 ft 497 kts 46°
2026-05-07 02:55 28.19755 126.08858 33008 ft 498 kts 47°
2026-05-07 02:56 28.24159 126.14935 33008 ft 498 kts 47°
2026-05-07 02:56 28.28549 126.21015 33021 ft 498 kts 47°
2026-05-07 02:57 28.32909 126.27069 33013 ft 499 kts 47°
2026-05-07 02:57 28.37298 126.33157 33012 ft 498 kts 47°
2026-05-07 02:58 28.41678 126.39253 33012 ft 498 kts 47°
2026-05-07 02:58 28.46052 126.45348 32993 ft 498 kts 47°
2026-05-07 02:59 28.50404 126.51410 32990 ft 499 kts 47°
2026-05-07 02:59 28.54791 126.57542 33010 ft 500 kts 47°
2026-05-07 03:00 28.59176 126.63681 33009 ft 500 kts 47°
2026-05-07 03:00 28.63561 126.69813 33005 ft 498 kts 47°
2026-05-07 03:01 28.67901 126.75900 33003 ft 499 kts 47°
2026-05-07 03:01 28.72288 126.82064 33004 ft 502 kts 47°
2026-05-07 03:02 28.76682 126.88249 33007 ft 502 kts 47°
2026-05-07 03:02 28.81073 126.94442 33006 ft 503 kts 47°
2026-05-07 03:03 28.85465 127.00637 33000 ft 502 kts 47°
2026-05-07 03:03 28.89831 127.06803 33002 ft 503 kts 47°
2026-05-07 03:04 28.94225 127.13018 33027 ft 501 kts 47°
2026-05-07 03:04 28.98604 127.19211 33002 ft 503 kts 47°
2026-05-07 03:05 29.02986 127.25440 33000 ft 503 kts 47°
2026-05-07 03:05 29.07326 127.31623 33002 ft 501 kts 47°
2026-05-07 03:06 29.11693 127.37838 32999 ft 501 kts 47°
2026-05-07 03:06 29.16065 127.44065 33002 ft 502 kts 47°
2026-05-07 03:07 29.20438 127.50305 32999 ft 502 kts 47°
2026-05-07 03:07 29.24762 127.56490 32996 ft 500 kts 47°
2026-05-07 03:08 29.29103 127.62711 32996 ft 500 kts 47°
2026-05-07 03:08 29.33452 127.68947 32995 ft 501 kts 47°
2026-05-07 03:09 29.37801 127.75196 32998 ft 501 kts 47°
2026-05-07 03:09 29.42144 127.81450 33001 ft 500 kts 47°
2026-05-07 03:10 29.46453 127.87662 32997 ft 502 kts 47°
2026-05-07 03:10 29.50807 127.93938 33001 ft 502 kts 47°
2026-05-07 03:11 29.55151 128.00218 32994 ft 502 kts 48°
2026-05-07 03:11 29.59499 128.06500 33000 ft 502 kts 48°
2026-05-07 03:12 29.63847 128.12792 33001 ft 503 kts 48°
2026-05-07 03:12 29.68161 128.19049 33001 ft 503 kts 48°
2026-05-07 03:13 29.72500 128.25356 33003 ft 502 kts 49°
2026-05-07 03:13 29.76831 128.31658 32993 ft 502 kts 49°
2026-05-07 03:14 29.81162 128.37969 32998 ft 502 kts 49°
2026-05-07 03:15 29.87622 128.47400 32994 ft 502 kts 49°
2026-05-07 03:15 29.91949 128.53726 33009 ft 503 kts 49°
2026-05-07 03:16 29.96273 128.60063 32995 ft 503 kts 49°
2026-05-07 03:16 30.00591 128.66405 33005 ft 502 kts 49°
2026-05-07 03:17 30.04877 128.72703 33002 ft 502 kts 49°
2026-05-07 03:17 30.09189 128.79049 33001 ft 502 kts 49°
2026-05-07 03:18 30.13498 128.85405 32986 ft 502 kts 49°
2026-05-07 03:18 30.17799 128.91759 33013 ft 502 kts 49°
2026-05-07 03:19 30.22095 128.98121 32996 ft 502 kts 49°
2026-05-07 03:19 30.26358 129.04440 32997 ft 502 kts 49°
2026-05-07 03:20 30.30658 129.10815 32994 ft 502 kts 49°
2026-05-07 03:20 30.34952 129.17193 32997 ft 502 kts 49°
2026-05-07 03:21 30.39238 129.23574 32993 ft 502 kts 49°
2026-05-07 03:21 30.43498 129.29923 32993 ft 502 kts 50°
2026-05-07 03:22 30.47774 129.36316 32995 ft 502 kts 50°
2026-05-07 03:22 30.52051 129.42712 32993 ft 501 kts 50°
2026-05-07 03:23 30.56325 129.49109 32992 ft 502 kts 50°
2026-05-07 03:23 30.60565 129.55467 33008 ft 501 kts 50°
2026-05-07 03:24 30.64828 129.61872 32995 ft 501 kts 50°
2026-05-07 03:24 30.69082 129.68282 32990 ft 501 kts 50°
2026-05-07 03:25 30.73331 129.74688 32997 ft 501 kts 50°
2026-05-07 03:25 30.77579 129.81107 32990 ft 501 kts 50°
2026-05-07 03:26 30.81787 129.87477 32996 ft 499 kts 50°
2026-05-07 03:26 30.85799 129.94088 33001 ft 501 kts 55°
2026-05-07 03:27 30.89512 130.00953 32995 ft 501 kts 56°
2026-05-07 03:27 30.93171 130.07857 32999 ft 501 kts 56°
2026-05-07 03:28 30.96793 130.14706 33000 ft 499 kts 56°
2026-05-07 03:28 31.00439 130.21599 33006 ft 500 kts 56°
2026-05-07 03:29 31.04084 130.28495 32999 ft 499 kts 56°
2026-05-07 03:29 31.07721 130.35384 32997 ft 498 kts 56°
2026-05-07 03:30 31.11326 130.42225 32999 ft 498 kts 56°
2026-05-07 03:30 31.14950 130.49116 32996 ft 498 kts 56°
2026-05-07 03:31 31.18570 130.56008 33006 ft 497 kts 56°
2026-05-07 03:31 31.22182 130.62904 32998 ft 498 kts 56°
2026-05-07 03:32 31.25789 130.69802 33002 ft 497 kts 57°
2026-05-07 03:32 31.29367 130.76649 33004 ft 497 kts 57°
2026-05-07 03:33 31.32965 130.83551 33000 ft 497 kts 57°
2026-05-07 03:33 31.36560 130.90465 33004 ft 498 kts 57°
2026-05-07 03:34 31.40147 130.97377 33001 ft 496 kts 57°
2026-05-07 03:34 31.43728 131.04281 33006 ft 496 kts 57°
2026-05-07 03:35 31.47280 131.11142 33000 ft 496 kts 57°
2026-05-07 03:35 31.50853 131.18062 33007 ft 496 kts 57°
2026-05-07 03:36 31.54421 131.24982 33001 ft 496 kts 57°
2026-05-07 03:36 31.57988 131.31911 33004 ft 496 kts 57°
2026-05-07 03:37 31.61528 131.38795 33013 ft 497 kts 57°
2026-05-07 03:37 31.65088 131.45737 32999 ft 497 kts 58°
2026-05-07 03:38 31.68644 131.52697 32998 ft 497 kts 58°
2026-05-07 03:38 31.72194 131.59657 32995 ft 496 kts 58°
2026-05-07 03:39 31.75714 131.66568 32999 ft 497 kts 58°
2026-05-07 03:39 31.79258 131.73539 33000 ft 496 kts 58°
2026-05-07 03:40 31.82797 131.80510 32996 ft 496 kts 58°
2026-05-07 03:40 31.86329 131.87478 33000 ft 496 kts 58°
2026-05-07 03:41 31.89833 131.94405 32999 ft 497 kts 58°
2026-05-07 03:41 31.93364 132.01393 32995 ft 496 kts 58°
2026-05-07 03:42 31.96878 132.08371 32998 ft 495 kts 58°
2026-05-07 03:42 32.00390 132.15355 32998 ft 496 kts 58°
2026-05-07 03:43 32.03877 132.22305 32995 ft 496 kts 58°
2026-05-07 03:43 32.07378 132.29288 33005 ft 494 kts 58°
2026-05-07 03:44 32.10873 132.36273 33001 ft 495 kts 58°
2026-05-07 03:44 32.14311 132.43321 33000 ft 495 kts 61°
2026-05-07 03:45 32.17347 132.50531 33006 ft 494 kts 63°
2026-05-07 03:45 32.20328 132.57843 33002 ft 495 kts 63°
2026-05-07 03:46 32.23361 132.65141 32999 ft 495 kts 63°
2026-05-07 03:46 32.26415 132.72395 32999 ft 492 kts 63°
2026-05-07 03:47 32.29451 132.79588 32999 ft 493 kts 63°
2026-05-07 03:47 32.32510 132.86852 32998 ft 493 kts 63°
2026-05-07 03:48 32.35558 132.94118 33001 ft 493 kts 63°
2026-05-07 03:48 32.38602 133.01393 33005 ft 494 kts 63°
2026-05-07 03:49 32.41651 133.08687 33000 ft 494 kts 63°
2026-05-07 03:49 32.44662 133.15912 33002 ft 493 kts 63°
2026-05-07 03:50 32.47688 133.23189 33005 ft 492 kts 62°
2026-05-07 03:50 32.50704 133.30443 32994 ft 489 kts 63°
2026-05-07 03:51 32.53703 133.37679 33002 ft 489 kts 63°
2026-05-07 03:51 32.56678 133.44879 33000 ft 489 kts 63°
2026-05-07 03:52 32.59661 133.52111 33001 ft 488 kts 63°
2026-05-07 03:52 32.62644 133.59352 32999 ft 489 kts 63°
2026-05-07 03:53 32.65622 133.66608 33000 ft 488 kts 63°
2026-05-07 03:53 32.68563 133.73772 33001 ft 485 kts 63°
2026-05-07 03:54 32.71519 133.80979 33000 ft 486 kts 63°
2026-05-07 03:54 32.74467 133.88193 32999 ft 484 kts 63°
2026-05-07 03:55 32.77395 133.95374 33000 ft 483 kts 63°
2026-05-07 03:55 32.80330 134.02588 33001 ft 486 kts 63°
2026-05-07 03:56 32.82858 134.09946 33003 ft 482 kts 71°
2026-05-07 03:56 32.84843 134.17546 33003 ft 481 kts 73°
2026-05-07 03:57 32.86740 134.25204 33003 ft 484 kts 73°
2026-05-07 03:57 32.88627 134.32859 33002 ft 481 kts 73°
2026-05-07 03:58 32.90502 134.40441 33004 ft 481 kts 73°
2026-05-07 03:58 32.92388 134.48066 33004 ft 479 kts 73°
2026-05-07 03:59 32.94259 134.55651 33004 ft 478 kts 73°
2026-05-07 03:59 32.96127 134.63245 33005 ft 478 kts 73°
2026-05-07 04:00 32.97973 134.70772 33005 ft 476 kts 73°
2026-05-07 04:00 32.99824 134.78350 33010 ft 477 kts 73°
2026-05-07 04:01 33.01672 134.85944 33006 ft 477 kts 73°
2026-05-07 04:01 33.03520 134.93538 33009 ft 477 kts 73°
2026-05-07 04:02 33.05360 135.01125 33010 ft 477 kts 73°
2026-05-07 04:02 33.07189 135.08678 33004 ft 478 kts 73°
2026-05-07 04:03 33.09291 135.16186 33008 ft 478 kts 64°
2026-05-07 04:03 33.13047 135.22642 33010 ft 474 kts 43°
2026-05-07 04:04 33.18104 135.27674 33010 ft 474 kts 37°
2026-05-07 04:04 33.23342 135.32368 33012 ft 473 kts 36°
2026-05-07 04:05 33.28627 135.37061 33012 ft 474 kts 36°
2026-05-07 04:05 33.33901 135.41803 33011 ft 475 kts 36°
2026-05-07 04:06 33.39164 135.46580 33010 ft 475 kts 36°
2026-05-07 04:06 33.44427 135.51367 33006 ft 475 kts 36°
2026-05-07 04:07 33.49652 135.56121 33007 ft 475 kts 36°
2026-05-07 04:07 33.54921 135.60917 33007 ft 475 kts 36°
2026-05-07 04:08 33.60173 135.65704 32999 ft 474 kts 37°
2026-05-07 04:08 33.65413 135.70499 33005 ft 474 kts 37°
2026-05-07 04:09 33.70629 135.75267 33005 ft 475 kts 36°
2026-05-07 04:09 33.75919 135.80034 33009 ft 476 kts 36°
2026-05-07 04:10 33.81219 135.84807 33017 ft 476 kts 36°
2026-05-07 04:10 33.86520 135.89601 33011 ft 479 kts 36°
2026-05-07 04:11 33.91811 135.94409 33012 ft 480 kts 36°
2026-05-07 04:11 33.97147 135.99251 33009 ft 480 kts 36°
2026-05-07 04:12 34.02465 136.04087 33008 ft 478 kts 36°
2026-05-07 04:12 34.07775 136.08925 33007 ft 479 kts 36°
2026-05-07 04:13 34.13093 136.13780 33007 ft 479 kts 36°
2026-05-07 04:13 34.18361 136.18600 33002 ft 478 kts 36°
2026-05-07 04:14 34.23666 136.23457 33000 ft 478 kts 36°
2026-05-07 04:14 34.28987 136.28291 33000 ft 478 kts 36°
2026-05-07 04:15 34.34300 136.33127 32997 ft 478 kts 36°
2026-05-07 04:15 34.39612 136.37979 32999 ft 479 kts 36°
2026-05-07 04:16 34.44900 136.42806 32980 ft 480 kts 36°
2026-05-07 04:16 34.50262 136.47679 32976 ft 484 kts 36°
2026-05-07 04:17 34.55644 136.52579 32987 ft 483 kts 36°
2026-05-07 04:17 34.61021 136.57483 32972 ft 483 kts 36°
2026-05-07 04:18 34.66350 136.62357 32976 ft 482 kts 36°
2026-05-07 04:18 34.71697 136.67273 32977 ft 482 kts 36°
2026-05-07 04:19 34.77044 136.72198 32969 ft 482 kts 36°
2026-05-07 04:19 34.82414 136.77149 32960 ft 487 kts 36°
2026-05-07 04:20 34.87794 136.82100 32964 ft 488 kts 35°
2026-05-07 04:20 34.93343 136.86848 32960 ft 487 kts 33°
2026-05-07 04:21 35.01731 136.93866 32971 ft 487 kts 33°
2026-05-07 04:21 35.07298 136.98595 32973 ft 488 kts 33°
2026-05-07 04:22 35.12829 137.03324 32974 ft 490 kts 33°
2026-05-07 04:22 35.18401 137.08112 32968 ft 489 kts 33°
2026-05-07 04:23 35.23975 137.12897 32969 ft 490 kts 33°
2026-05-07 04:23 35.29555 137.17691 32969 ft 490 kts 33°
2026-05-07 04:24 35.35074 137.22488 32980 ft 491 kts 36°
2026-05-07 04:24 35.39739 137.28596 32981 ft 495 kts 56°
2026-05-07 04:25 35.42962 137.36062 32986 ft 497 kts 64°
2026-05-07 04:25 35.45864 137.43767 32989 ft 498 kts 65°
2026-05-07 04:26 35.48705 137.51442 32995 ft 498 kts 65°
2026-05-07 04:26 35.51617 137.59149 32994 ft 497 kts 65°
2026-05-07 04:27 35.54532 137.66824 33002 ft 495 kts 65°
2026-05-07 04:27 35.57442 137.74481 33007 ft 494 kts 65°
2026-05-07 04:28 35.60323 137.82091 33006 ft 494 kts 65°
2026-05-07 04:28 35.63120 137.89814 33005 ft 495 kts 66°
2026-05-07 04:29 35.65882 137.97576 33008 ft 496 kts 66°
2026-05-07 04:29 35.68689 138.05325 33003 ft 497 kts 65°
2026-05-07 04:30 35.71680 138.13007 32994 ft 498 kts 64°
2026-05-07 04:30 35.74672 138.20630 32992 ft 497 kts 64°
2026-05-07 04:31 35.77647 138.28320 32988 ft 498 kts 64°
2026-05-07 04:31 35.80604 138.36031 32985 ft 497 kts 65°
2026-05-07 04:32 35.83555 138.43753 32983 ft 498 kts 65°
2026-05-07 04:32 35.86485 138.51425 32976 ft 497 kts 65°
2026-05-07 04:33 35.89433 138.59131 32981 ft 497 kts 65°
2026-05-07 04:33 35.92371 138.66848 32997 ft 497 kts 65°
2026-05-07 04:34 35.95297 138.74601 32988 ft 499 kts 65°
2026-05-07 04:34 35.98216 138.82364 32977 ft 499 kts 65°
2026-05-07 04:35 36.01115 138.90080 32982 ft 498 kts 65°
2026-05-07 04:35 36.04033 138.97867 32989 ft 500 kts 65°
2026-05-07 04:36 36.06954 139.05666 32986 ft 500 kts 65°
2026-05-07 04:36 36.09874 139.13485 32978 ft 501 kts 65°
2026-05-07 04:37 36.12773 139.21275 32974 ft 502 kts 65°
2026-05-07 04:37 36.15719 139.29120 32972 ft 503 kts 62°
2026-05-07 04:38 36.19512 139.36373 32973 ft 502 kts 54°
2026-05-07 04:38 36.23597 139.43400 32972 ft 502 kts 53°
2026-05-07 04:39 36.27729 139.50394 32968 ft 503 kts 53°
2026-05-07 04:39 36.31826 139.57352 32968 ft 502 kts 53°
2026-05-07 04:40 36.35928 139.64363 32968 ft 503 kts 53°
2026-05-07 04:40 36.40029 139.71402 33054 ft 505 kts 53°
2026-05-07 04:41 36.44180 139.78495 33149 ft 511 kts 52°
2026-05-07 04:41 36.48365 139.85617 33241 ft 516 kts 52°
2026-05-07 04:42 36.52470 139.92953 33502 ft 518 kts 56°
2026-05-07 04:42 36.54431 139.96708 33646 ft 518 kts 56°
2026-05-07 04:42 36.56378 140.00475 33774 ft 518 kts 56°
2026-05-07 04:43 36.58333 140.04248 33909 ft 518 kts 56°
2026-05-07 04:43 36.60291 140.08016 34046 ft 518 kts 56°
2026-05-07 04:43 36.62256 140.11773 34191 ft 517 kts 56°
2026-05-07 04:43 36.64201 140.15469 34300 ft 518 kts 56°
2026-05-07 04:44 36.66175 140.19215 34421 ft 517 kts 56°
2026-05-07 04:44 36.68149 140.22960 34539 ft 518 kts 55°
2026-05-07 04:44 36.72098 140.30472 34750 ft 518 kts 56°
2026-05-07 04:45 36.74009 140.34286 34871 ft 519 kts 61°
2026-05-07 04:45 36.75615 140.38312 34934 ft 520 kts 64°
2026-05-07 04:45 36.78616 140.46523 34940 ft 519 kts 65°
2026-05-07 04:46 36.81504 140.54724 34944 ft 519 kts 65°
2026-05-07 04:46 36.84398 140.62976 34948 ft 519 kts 65°
2026-05-07 04:47 36.87308 140.71240 34952 ft 520 kts 65°
2026-05-07 04:47 36.90216 140.79509 34952 ft 520 kts 65°
2026-05-07 04:48 36.93097 140.87729 34948 ft 520 kts 65°
2026-05-07 04:48 36.95995 140.96009 34949 ft 520 kts 65°
2026-05-07 04:49 36.98882 141.04305 34949 ft 520 kts 65°
2026-05-07 04:49 37.01771 141.12601 34954 ft 520 kts 66°
2026-05-07 04:50 37.04654 141.20913 34955 ft 520 kts 66°
2026-05-07 04:50 37.07511 141.29173 34957 ft 521 kts 66°
2026-05-07 04:51 37.10382 141.37501 34958 ft 521 kts 66°
2026-05-07 04:51 37.13248 141.45836 34955 ft 521 kts 66°
2026-05-07 04:52 37.16114 141.54189 34955 ft 521 kts 66°
2026-05-07 04:52 37.18953 141.62488 34961 ft 521 kts 66°
2026-05-07 04:53 37.21804 141.70846 34961 ft 521 kts 66°
2026-05-07 04:53 37.24648 141.79212 34961 ft 521 kts 66°
2026-05-07 04:54 37.27487 141.87585 34963 ft 521 kts 66°
2026-05-07 04:54 37.30322 141.95969 34966 ft 522 kts 66°
2026-05-07 04:55 37.33132 142.04304 34966 ft 522 kts 66°
2026-05-07 04:55 37.35957 142.12703 34970 ft 522 kts 66°
2026-05-07 04:56 37.38774 142.21107 34970 ft 521 kts 66°
2026-05-07 04:56 37.41585 142.29511 34976 ft 522 kts 66°
2026-05-07 04:57 37.44394 142.37937 34971 ft 523 kts 66°
2026-05-07 04:57 37.47180 142.46322 34974 ft 523 kts 66°
2026-05-07 04:58 37.49966 142.54766 34975 ft 522 kts 66°
2026-05-07 04:58 37.52755 142.63196 34973 ft 521 kts 66°
2026-05-07 04:59 37.55545 142.71634 34977 ft 522 kts 66°
2026-05-07 04:59 37.58278 142.80040 34980 ft 522 kts 67°
2026-05-07 05:00 37.60981 142.88530 34982 ft 522 kts 67°
2026-05-07 05:00 37.63687 142.97031 34982 ft 522 kts 67°
2026-05-07 05:01 37.66397 143.05542 34979 ft 523 kts 67°
2026-05-07 05:01 37.69106 143.14055 34980 ft 523 kts 67°
2026-05-07 05:02 37.71784 143.22523 34984 ft 523 kts 67°
2026-05-07 05:02 37.74479 143.31057 34984 ft 523 kts 67°
2026-05-07 05:03 37.77166 143.39594 34984 ft 523 kts 67°
2026-05-07 05:03 37.79863 143.48136 34983 ft 523 kts 65°
2026-05-07 05:04 37.81542 143.52199 34988 ft 520 kts 54°
2026-05-07 05:04 37.83674 143.55775 34986 ft 514 kts 43°
2026-05-07 05:04 37.88835 143.61983 34984 ft 512 kts 37°
2026-05-07 05:05 37.94215 143.67886 34986 ft 512 kts 36°
2026-05-07 05:05 37.98719 143.72776 34985 ft 513 kts 36°
2026-05-07 05:06 38.04991 143.79662 34988 ft 513 kts 36°
2026-05-07 05:06 38.10367 143.85612 34989 ft 513 kts 37°
2026-05-07 05:07 38.15737 143.91579 34989 ft 513 kts 37°
2026-05-07 05:07 38.21110 143.97562 35013 ft 514 kts 37°
2026-05-07 05:08 38.25580 144.02548 34982 ft 515 kts 36°
2026-05-07 05:08 38.31844 144.09547 34988 ft 516 kts 37°
2026-05-07 05:09 38.36357 144.14600 34990 ft 516 kts 37°
2026-05-07 05:09 38.41709 144.20599 34979 ft 515 kts 37°
2026-05-07 05:10 38.47088 144.26643 34994 ft 516 kts 37°
2026-05-07 05:10 38.52463 144.32698 35012 ft 515 kts 37°
2026-05-07 05:11 38.57837 144.38764 34992 ft 516 kts 36°
2026-05-07 05:11 38.63183 144.44807 34993 ft 517 kts 36°
2026-05-07 05:12 38.68563 144.50903 35005 ft 517 kts 36°
2026-05-07 05:12 38.73930 144.57017 34993 ft 516 kts 36°
2026-05-07 05:13 38.79290 144.63149 34993 ft 516 kts 36°
2026-05-07 05:13 38.84643 144.69282 35006 ft 516 kts 36°
2026-05-07 05:14 38.89964 144.75392 35009 ft 517 kts 36°
2026-05-07 05:14 38.95329 144.81562 34999 ft 518 kts 36°
2026-05-07 05:15 39.00688 144.87745 35000 ft 517 kts 36°
2026-05-07 05:15 39.06010 144.93897 35002 ft 518 kts 36°
2026-05-07 05:16 39.11368 145.00095 35003 ft 518 kts 36°
2026-05-07 05:16 39.16722 145.06303 35008 ft 519 kts 36°
2026-05-07 05:17 39.22083 145.12536 34995 ft 520 kts 36°
2026-05-07 05:17 39.27412 145.18746 35001 ft 520 kts 36°
2026-05-07 05:18 39.32774 145.25007 35001 ft 520 kts 36°
2026-05-07 05:18 39.38133 145.31276 35001 ft 520 kts 36°
2026-05-07 05:19 39.43493 145.37561 35005 ft 520 kts 36°
2026-05-07 05:19 39.48814 145.43810 34990 ft 520 kts 36°
2026-05-07 05:20 39.54166 145.50119 35002 ft 522 kts 36°
2026-05-07 05:20 39.59528 145.56463 35003 ft 522 kts 36°
2026-05-07 05:21 39.67574 145.65976 35002 ft 522 kts 36°
2026-05-07 05:22 39.72898 145.72290 35003 ft 522 kts 36°
2026-05-07 05:22 39.78257 145.78665 35007 ft 522 kts 36°
2026-05-07 05:23 39.83615 145.85054 35017 ft 522 kts 36°
2026-05-07 05:23 39.88978 145.91457 35008 ft 523 kts 36°
2026-05-07 05:24 39.94308 145.97841 35005 ft 524 kts 36°
2026-05-07 05:24 39.99671 146.04278 35003 ft 524 kts 36°
2026-05-07 05:25 40.05030 146.10722 35001 ft 524 kts 36°
2026-05-07 05:25 40.10387 146.17179 35005 ft 524 kts 36°
2026-05-07 05:26 40.15748 146.23656 35003 ft 525 kts 36°
2026-05-07 05:26 40.21076 146.30107 35001 ft 525 kts 36°
2026-05-07 05:27 40.26433 146.36608 34997 ft 525 kts 36°
2026-05-07 05:27 40.31787 146.43120 34999 ft 525 kts 36°
2026-05-07 05:28 40.37143 146.49643 34999 ft 526 kts 36°
2026-05-07 05:28 40.42493 146.56178 35005 ft 525 kts 36°
2026-05-07 05:29 40.47807 146.62684 34997 ft 527 kts 36°
2026-05-07 05:29 40.53162 146.69261 34999 ft 527 kts 36°
2026-05-07 05:30 40.58513 146.75852 35000 ft 527 kts 36°
2026-05-07 05:30 40.63855 146.82445 34999 ft 527 kts 36°
2026-05-07 05:31 40.69204 146.89049 34997 ft 527 kts 36°
2026-05-07 05:31 40.74512 146.95623 35008 ft 527 kts 36°
2026-05-07 05:32 40.79854 147.02253 35000 ft 528 kts 36°
2026-05-07 05:32 40.85208 147.08914 34995 ft 529 kts 36°
2026-05-07 05:33 40.90553 147.15584 34992 ft 529 kts 36°
2026-05-07 05:33 40.95895 147.22266 34989 ft 528 kts 36°
2026-05-07 05:34 41.01195 147.28908 34987 ft 529 kts 36°
2026-05-07 05:34 41.06531 147.35610 35005 ft 529 kts 36°
2026-05-07 05:35 41.11872 147.42332 34992 ft 530 kts 36°
2026-05-07 05:35 41.17179 147.49033 34988 ft 530 kts 36°
2026-05-07 05:36 41.22518 147.55793 34988 ft 530 kts 36°
2026-05-07 05:36 41.27848 147.62555 34985 ft 529 kts 36°
2026-05-07 05:37 41.33173 147.69321 34985 ft 530 kts 36°
2026-05-07 05:37 41.38494 147.76097 35007 ft 530 kts 36°
2026-05-07 05:38 41.43783 147.82854 34986 ft 531 kts 36°
2026-05-07 05:38 41.49113 147.89676 34983 ft 531 kts 36°
2026-05-07 05:39 41.54439 147.96508 34980 ft 531 kts 36°
2026-05-07 05:39 41.59754 148.03347 34976 ft 530 kts 36°
2026-05-07 05:40 41.65065 148.10196 34982 ft 531 kts 36°
2026-05-07 05:40 41.70336 148.17011 34978 ft 531 kts 36°
2026-05-07 05:41 41.75646 148.23904 34975 ft 532 kts 36°
2026-05-07 05:41 41.80927 148.30868 34973 ft 533 kts 37°
2026-05-07 05:42 41.86192 148.37867 34973 ft 533 kts 37°
2026-05-07 05:42 41.91411 148.44811 34972 ft 532 kts 37°
2026-05-07 05:43 41.96670 148.51811 34972 ft 532 kts 37°
2026-05-07 05:43 42.01919 148.58813 34971 ft 531 kts 37°
2026-05-07 05:44 42.07148 148.65799 34975 ft 530 kts 37°
2026-05-07 05:44 42.12385 148.72820 34965 ft 533 kts 37°
2026-05-07 05:45 42.17593 148.79824 34965 ft 532 kts 37°
2026-05-07 05:45 42.22818 148.86873 34964 ft 531 kts 37°
2026-05-07 05:46 42.28027 148.93910 34964 ft 530 kts 37°
2026-05-07 05:46 42.33249 149.00972 34960 ft 531 kts 38°
2026-05-07 05:47 42.38400 149.08002 34956 ft 529 kts 37°
2026-05-07 05:47 42.43621 149.15049 34960 ft 530 kts 38°
2026-05-07 05:48 42.48822 149.22133 34952 ft 530 kts 37°
2026-05-07 05:48 42.54017 149.29255 34957 ft 530 kts 38°
2026-05-07 05:49 42.59181 149.36370 34947 ft 530 kts 38°
2026-05-07 05:49 42.64330 149.43456 34952 ft 530 kts 37°
2026-05-07 05:50 42.69505 149.50569 34952 ft 529 kts 37°
2026-05-07 05:50 42.74671 149.57681 34955 ft 529 kts 37°
2026-05-07 05:51 42.79831 149.64829 34945 ft 530 kts 37°
2026-05-07 05:51 42.84985 149.71995 34948 ft 529 kts 37°
2026-05-07 05:52 42.90102 149.79119 34952 ft 529 kts 37°
2026-05-07 05:52 42.95250 149.86298 34949 ft 528 kts 37°
2026-05-07 05:53 43.00384 149.93482 34945 ft 529 kts 38°
2026-05-07 05:53 43.05521 150.00693 34941 ft 529 kts 37°
2026-05-07 05:54 43.10619 150.07860 34948 ft 529 kts 37°
2026-05-07 05:54 43.15745 150.15087 34935 ft 529 kts 38°
2026-05-07 05:55 43.20861 150.22321 34938 ft 528 kts 38°
2026-05-07 05:55 43.25978 150.29573 34936 ft 530 kts 38°
2026-05-07 05:56 43.31058 150.36797 34934 ft 529 kts 38°
2026-05-07 05:56 43.36191 150.44071 34933 ft 531 kts 38°
2026-05-07 05:57 43.41270 150.51343 34935 ft 528 kts 38°
2026-05-07 05:57 43.46362 150.58641 34930 ft 529 kts 38°
2026-05-07 05:58 43.51457 150.65958 34929 ft 529 kts 38°
2026-05-07 05:58 43.56527 150.73250 34923 ft 531 kts 38°
2026-05-07 05:59 43.61617 150.80600 34923 ft 529 kts 38°
2026-05-07 05:59 43.66696 150.87946 34931 ft 529 kts 38°
2026-05-07 06:00 43.71769 150.95306 34923 ft 529 kts 38°
2026-05-07 06:00 43.76804 151.02633 34941 ft 528 kts 38°
2026-05-07 06:01 43.81859 151.10007 34924 ft 528 kts 38°
2026-05-07 06:01 43.86909 151.17401 34922 ft 528 kts 38°
2026-05-07 06:02 43.91957 151.24794 34925 ft 528 kts 38°
2026-05-07 06:02 43.96994 151.32193 34918 ft 526 kts 38°
2026-05-07 06:03 44.01982 151.39537 34916 ft 527 kts 38°
2026-05-07 06:03 44.07011 151.46961 34914 ft 528 kts 38°
2026-05-07 06:04 44.12030 151.54400 34938 ft 527 kts 38°
2026-05-07 06:04 44.17041 151.61844 34908 ft 527 kts 38°
2026-05-07 06:05 44.22021 151.69262 34911 ft 527 kts 38°
2026-05-07 06:05 44.27027 151.76741 34907 ft 527 kts 38°
2026-05-07 06:06 44.32020 151.84222 34906 ft 527 kts 38°
2026-05-07 06:06 44.37008 151.91712 34907 ft 527 kts 38°
2026-05-07 06:07 44.41994 151.99216 34908 ft 527 kts 39°
2026-05-07 06:07 44.46945 152.06686 34903 ft 527 kts 39°
2026-05-07 06:08 44.51919 152.14212 34904 ft 527 kts 39°
2026-05-07 06:08 44.56890 152.21757 34910 ft 527 kts 39°
2026-05-07 06:09 44.61854 152.29312 34905 ft 527 kts 39°
2026-05-07 06:09 44.66785 152.36839 34887 ft 527 kts 39°
2026-05-07 06:10 44.71749 152.44433 34899 ft 527 kts 39°
2026-05-07 06:10 44.76707 152.52032 34896 ft 527 kts 39°
2026-05-07 06:11 44.81657 152.59648 34894 ft 527 kts 39°
2026-05-07 06:11 44.86570 152.67231 34893 ft 527 kts 39°
2026-05-07 06:12 44.91517 152.74883 34891 ft 528 kts 39°
2026-05-07 06:12 44.96458 152.82549 34892 ft 528 kts 39°
2026-05-07 06:13 45.01396 152.90227 34888 ft 528 kts 40°
2026-05-07 06:13 45.06296 152.97870 34902 ft 528 kts 40°
2026-05-07 06:14 45.11228 153.05582 34883 ft 528 kts 40°
2026-05-07 06:14 45.16146 153.13298 34887 ft 528 kts 40°
2026-05-07 06:15 45.21064 153.21032 34887 ft 528 kts 40°
2026-05-07 06:15 45.25946 153.28732 34881 ft 528 kts 40°
2026-05-07 06:16 45.30861 153.36504 34883 ft 528 kts 40°
2026-05-07 06:16 45.35761 153.44274 34880 ft 528 kts 40°
2026-05-07 06:17 45.40659 153.52065 34892 ft 528 kts 40°
2026-05-07 06:17 45.45558 153.59882 34879 ft 529 kts 40°
2026-05-07 06:18 45.50424 153.67636 34882 ft 528 kts 40°
2026-05-07 06:18 45.55303 153.75480 34900 ft 529 kts 41°
2026-05-07 06:19 45.60148 153.83380 34887 ft 529 kts 41°
2026-05-07 06:19 45.64991 153.91312 34887 ft 529 kts 41°
2026-05-07 06:20 45.69805 153.99185 34881 ft 529 kts 41°
2026-05-07 06:20 45.74645 154.07122 34888 ft 529 kts 41°
2026-05-07 06:21 45.79477 154.15081 34882 ft 530 kts 41°
2026-05-07 06:21 45.84307 154.23062 34884 ft 530 kts 41°
2026-05-07 06:22 45.89134 154.31042 34885 ft 529 kts 41°
2026-05-07 06:22 45.96336 154.43011 34884 ft 532 kts 42°
2026-05-07 06:23 46.01151 154.51059 34881 ft 530 kts 42°
2026-05-07 06:23 46.05964 154.59114 34883 ft 531 kts 42°
2026-05-07 06:24 46.10774 154.67178 34895 ft 531 kts 42°
2026-05-07 06:24 46.15547 154.75205 34880 ft 531 kts 42°
2026-05-07 06:25 46.20342 154.83296 34885 ft 531 kts 42°
2026-05-07 06:25 46.25138 154.91404 34892 ft 531 kts 42°
2026-05-07 06:26 46.29926 154.99532 34890 ft 531 kts 42°
2026-05-07 06:26 46.34713 155.07681 34883 ft 532 kts 42°
2026-05-07 06:27 46.39464 155.15794 34889 ft 532 kts 42°
2026-05-07 06:27 46.44241 155.23982 34889 ft 531 kts 42°
2026-05-07 06:28 46.49014 155.32173 34886 ft 532 kts 42°
2026-05-07 06:28 46.53783 155.40389 34892 ft 532 kts 42°
2026-05-07 06:29 46.58543 155.48614 34886 ft 532 kts 43°
2026-05-07 06:29 46.63271 155.56799 34892 ft 532 kts 43°
2026-05-07 06:30 46.68023 155.65061 34897 ft 532 kts 43°
2026-05-07 06:30 46.72774 155.73344 34892 ft 532 kts 43°
2026-05-07 06:31 46.77481 155.81572 34893 ft 532 kts 43°
2026-05-07 06:31 46.82211 155.89878 34900 ft 534 kts 43°
2026-05-07 06:32 46.86946 155.98213 34900 ft 533 kts 43°
2026-05-07 06:32 46.91677 156.06547 34908 ft 534 kts 43°
2026-05-07 06:33 46.96434 156.14923 34902 ft 534 kts 43°
2026-05-07 06:33 47.01113 156.23255 34915 ft 532 kts 43°
2026-05-07 06:34 47.05818 156.31644 34904 ft 534 kts 43°
2026-05-07 06:34 47.10522 156.40061 34905 ft 532 kts 43°
2026-05-07 06:35 47.15223 156.48487 34906 ft 534 kts 43°
2026-05-07 06:35 47.19893 156.56872 34906 ft 534 kts 43°
2026-05-07 06:36 47.24589 156.65338 34926 ft 534 kts 43°
2026-05-07 06:36 47.29280 156.73817 34905 ft 533 kts 43°
2026-05-07 06:37 47.33961 156.82307 34912 ft 533 kts 43°
2026-05-07 06:37 47.38634 156.90813 34914 ft 534 kts 43°
2026-05-07 06:38 47.43272 156.99285 34917 ft 534 kts 43°
2026-05-07 06:38 47.47932 157.07820 34914 ft 533 kts 43°
2026-05-07 06:39 47.52582 157.16368 34917 ft 533 kts 43°
2026-05-07 06:39 47.57221 157.24938 34919 ft 533 kts 43°
2026-05-07 06:40 47.61836 157.33459 34922 ft 533 kts 43°
2026-05-07 06:40 47.66487 157.42063 34922 ft 534 kts 43°
2026-05-07 06:41 47.71118 157.50677 34921 ft 534 kts 44°
2026-05-07 06:41 47.75741 157.59305 34932 ft 534 kts 44°
2026-05-07 06:42 47.80334 157.67900 34922 ft 534 kts 44°
2026-05-07 06:42 47.84955 157.76576 34922 ft 535 kts 44°
2026-05-07 06:43 47.89567 157.85271 34920 ft 535 kts 44°
2026-05-07 06:43 47.94171 157.93973 34923 ft 534 kts 44°
2026-05-07 06:44 47.98733 158.02622 34921 ft 534 kts 44°
2026-05-07 06:44 48.03324 158.11350 34920 ft 534 kts 44°
2026-05-07 06:45 48.07908 158.20095 34919 ft 534 kts 44°
2026-05-07 06:45 48.12483 158.28858 34922 ft 534 kts 44°
2026-05-07 06:46 48.17053 158.37629 34923 ft 534 kts 44°
2026-05-07 06:46 48.21590 158.46370 34917 ft 535 kts 44°
2026-05-07 06:47 48.26148 158.55183 34920 ft 535 kts 44°
2026-05-07 06:47 48.30699 158.64020 34920 ft 535 kts 44°
2026-05-07 06:48 48.35245 158.72867 34914 ft 535 kts 44°
2026-05-07 06:48 48.39789 158.81734 34914 ft 535 kts 44°
2026-05-07 06:49 48.44293 158.90554 34915 ft 535 kts 44°
2026-05-07 06:49 48.48818 158.99448 34922 ft 534 kts 44°
2026-05-07 06:50 48.53338 159.08355 34911 ft 535 kts 44°
2026-05-07 06:50 48.57860 159.17298 34911 ft 536 kts 44°
2026-05-07 06:51 48.62339 159.26191 34911 ft 535 kts 44°
2026-05-07 06:51 48.66849 159.35160 34910 ft 536 kts 44°
2026-05-07 06:52 48.71348 159.44151 34911 ft 535 kts 44°
2026-05-07 06:52 48.75836 159.53153 34930 ft 536 kts 44°
2026-05-07 06:53 48.80319 159.62174 34907 ft 535 kts 44°
2026-05-07 06:53 48.84794 159.71204 34919 ft 536 kts 44°
2026-05-07 06:54 48.89244 159.80214 34905 ft 537 kts 44°
2026-05-07 06:54 48.93721 159.89310 34909 ft 538 kts 44°
2026-05-07 06:55 48.98198 159.98444 34900 ft 538 kts 44°
2026-05-07 06:55 49.02634 160.07624 34904 ft 539 kts 46°
2026-05-07 06:56 49.06949 160.16900 34897 ft 540 kts 46°
2026-05-07 06:56 49.11276 160.26262 34902 ft 540 kts 46°
2026-05-07 06:57 49.15623 160.35642 34892 ft 541 kts 46°
2026-05-07 06:57 49.19969 160.45028 34892 ft 541 kts 46°
2026-05-07 06:58 49.24311 160.54436 34889 ft 542 kts 46°
2026-05-07 06:58 49.28618 160.63807 34883 ft 542 kts 46°
2026-05-07 06:59 49.32944 160.73247 34884 ft 542 kts 46°
2026-05-07 06:59 49.37271 160.82724 34873 ft 542 kts 46°
2026-05-07 07:00 49.41588 160.92204 34898 ft 542 kts 46°
2026-05-07 07:00 49.45864 161.01639 34873 ft 541 kts 46°
2026-05-07 07:01 49.50152 161.11147 34870 ft 541 kts 46°
2026-05-07 07:01 49.54428 161.20675 34865 ft 541 kts 47°
2026-05-07 07:02 49.58680 161.30257 34901 ft 542 kts 47°
2026-05-07 07:02 49.62908 161.39835 34867 ft 539 kts 47°
2026-05-07 07:03 49.67101 161.49345 34859 ft 539 kts 47°
2026-05-07 07:03 49.71317 161.58933 34854 ft 540 kts 47°
2026-05-07 07:04 49.75529 161.68545 34853 ft 540 kts 47°
2026-05-07 07:04 49.79711 161.78135 34849 ft 537 kts 47°
2026-05-07 07:05 49.83852 161.87660 34840 ft 537 kts 47°
2026-05-07 07:05 49.88013 161.97261 34840 ft 537 kts 47°
2026-05-07 07:06 49.92168 162.06885 34840 ft 537 kts 48°
2026-05-07 07:06 49.96316 162.16530 34855 ft 537 kts 48°
2026-05-07 07:07 50.00418 162.26108 34836 ft 536 kts 48°
2026-05-07 07:07 50.04545 162.35773 34838 ft 536 kts 49°
2026-05-07 07:08 50.08656 162.45438 34823 ft 533 kts 49°
2026-05-07 07:08 50.12722 162.55048 34827 ft 531 kts 49°
2026-05-07 07:09 50.16789 162.64672 34827 ft 532 kts 49°
2026-05-07 07:09 50.20821 162.74244 34833 ft 531 kts 49°
2026-05-07 07:10 50.24860 162.83879 34825 ft 528 kts 49°
2026-05-07 07:10 50.28860 162.93464 34815 ft 525 kts 49°
2026-05-07 07:11 50.32847 163.03038 34811 ft 525 kts 49°
2026-05-07 07:11 50.36798 163.12565 34809 ft 526 kts 49°
2026-05-07 07:12 50.40771 163.22178 34805 ft 524 kts 50°
2026-05-07 07:12 50.44722 163.31776 34802 ft 524 kts 50°
2026-05-07 07:13 50.48664 163.41387 34804 ft 524 kts 50°
2026-05-07 07:13 50.52575 163.50959 34802 ft 524 kts 50°
2026-05-07 07:14 50.56501 163.60609 34798 ft 524 kts 50°
2026-05-07 07:14 50.60424 163.70277 34794 ft 524 kts 50°
2026-05-07 07:15 50.64339 163.79961 34792 ft 524 kts 50°
2026-05-07 07:15 50.68245 163.89663 34791 ft 524 kts 50°
2026-05-07 07:16 50.72117 163.99315 34787 ft 524 kts 51°
2026-05-07 07:16 50.76006 164.09050 34779 ft 524 kts 51°
2026-05-07 07:17 50.79892 164.18799 34777 ft 524 kts 52°
2026-05-07 07:17 50.83766 164.28573 34777 ft 524 kts 52°
2026-05-07 07:18 50.87629 164.38350 34773 ft 523 kts 52°
2026-05-07 07:18 50.91444 164.48038 34769 ft 521 kts 52°
2026-05-07 07:19 50.95289 164.57767 34766 ft 521 kts 52°
2026-05-07 07:19 50.99133 164.67507 34760 ft 521 kts 52°
2026-05-07 07:20 51.02968 164.77270 34759 ft 520 kts 52°
2026-05-07 07:20 51.06753 164.86957 34768 ft 519 kts 53°
2026-05-07 07:21 51.10547 164.96703 34755 ft 518 kts 53°
2026-05-07 07:21 51.14331 165.06464 34750 ft 518 kts 53°
2026-05-07 07:22 51.18108 165.16234 34757 ft 518 kts 53°
2026-05-07 07:22 51.21864 165.25995 34748 ft 516 kts 53°
2026-05-07 07:23 51.25581 165.35686 34743 ft 516 kts 53°
2026-05-07 07:23 51.29315 165.45464 34738 ft 516 kts 53°
2026-05-07 07:24 51.33045 165.55264 34743 ft 516 kts 54°
2026-05-07 07:24 51.36762 165.65070 34735 ft 515 kts 54°
2026-05-07 07:25 51.42307 165.79682 34747 ft 514 kts 54°
2026-05-07 07:26 51.46012 165.89474 34724 ft 513 kts 54°
2026-05-07 07:26 51.49699 165.99265 34724 ft 513 kts 54°
2026-05-07 07:27 51.53381 166.09082 34726 ft 513 kts 54°
2026-05-07 07:27 51.57025 166.18836 34717 ft 513 kts 54°
2026-05-07 07:28 51.60688 166.28685 34720 ft 513 kts 55°
2026-05-07 07:28 51.64347 166.38547 34723 ft 513 kts 55°
2026-05-07 07:29 51.67984 166.48395 34714 ft 511 kts 55°
2026-05-07 07:29 51.71607 166.58250 34708 ft 511 kts 55°
2026-05-07 07:30 51.75199 166.68055 34709 ft 511 kts 55°
2026-05-07 07:30 51.78807 166.77933 34715 ft 510 kts 56°
2026-05-07 07:31 51.82391 166.87795 34711 ft 508 kts 56°
2026-05-07 07:31 51.85956 166.97649 34705 ft 507 kts 56°
2026-05-07 07:32 51.89489 167.07440 34705 ft 507 kts 56°
2026-05-07 07:32 51.93036 167.17314 34705 ft 507 kts 56°
2026-05-07 07:33 51.96577 167.27206 34700 ft 506 kts 57°
2026-05-07 07:33 52.00080 167.37040 34698 ft 501 kts 57°
2026-05-07 07:34 52.03534 167.46760 34694 ft 501 kts 57°
2026-05-07 07:34 52.07002 167.56568 34697 ft 501 kts 57°
2026-05-07 07:35 52.10465 167.66392 34701 ft 501 kts 57°
2026-05-07 07:35 52.13916 167.76223 34698 ft 500 kts 57°
2026-05-07 07:36 52.16768 167.84381 34692 ft 499 kts 57°
2026-05-07 07:36 52.20748 167.95803 34697 ft 499 kts 58°
2026-05-07 07:37 52.24165 168.05654 34698 ft 499 kts 58°
2026-05-07 07:37 52.27569 168.15503 34683 ft 498 kts 58°
2026-05-07 07:38 52.30388 168.23692 34685 ft 497 kts 58°
2026-05-07 07:38 52.34321 168.35155 34678 ft 498 kts 58°
2026-05-07 07:39 52.37150 168.43438 34685 ft 497 kts 58°
2026-05-07 07:39 52.40493 168.53264 34682 ft 498 kts 58°
2026-05-07 07:40 52.43851 168.63163 34691 ft 498 kts 58°
2026-05-07 07:40 52.47200 168.73082 34698 ft 497 kts 59°
2026-05-07 07:41 52.50532 168.82998 34683 ft 495 kts 59°
2026-05-07 07:41 52.53826 168.92832 34684 ft 495 kts 59°
2026-05-07 07:42 52.57133 169.02735 34675 ft 494 kts 59°
2026-05-07 07:42 52.60431 169.12654 34676 ft 494 kts 59°
2026-05-07 07:43 52.63718 169.22592 34674 ft 494 kts 59°
2026-05-07 07:43 52.66974 169.32475 34677 ft 494 kts 59°
2026-05-07 07:44 52.70246 169.42441 34681 ft 492 kts 60°
2026-05-07 07:44 52.73498 169.52374 34679 ft 492 kts 60°
2026-05-07 07:45 52.76740 169.62338 34675 ft 493 kts 60°
2026-05-07 07:45 52.79955 169.72258 34676 ft 493 kts 60°
2026-05-07 07:46 52.83184 169.82255 34674 ft 493 kts 60°
2026-05-07 07:46 52.86398 169.92242 34669 ft 491 kts 61°
2026-05-07 07:47 52.89587 170.02195 34673 ft 488 kts 61°
2026-05-07 07:47 52.92933 170.11964 34674 ft 487 kts 52°
2026-05-07 07:48 52.97608 170.19837 34674 ft 482 kts 36°
2026-05-07 07:48 53.02987 170.26496 34673 ft 483 kts 33°
2026-05-07 07:49 53.08466 170.32948 34671 ft 483 kts 33°
2026-05-07 07:49 53.13944 170.39424 34671 ft 483 kts 34°
2026-05-07 07:50 53.19366 170.45903 34669 ft 483 kts 34°
2026-05-07 07:50 53.24815 170.52468 34670 ft 483 kts 34°
2026-05-07 07:51 53.30146 170.58909 34670 ft 483 kts 34°
2026-05-07 07:51 53.35586 170.65501 34670 ft 483 kts 34°
2026-05-07 07:52 53.41021 170.72107 34667 ft 483 kts 35°
2026-05-07 07:52 53.46418 170.78688 34666 ft 483 kts 35°
2026-05-07 07:53 53.51839 170.85323 34664 ft 482 kts 35°
2026-05-07 07:53 53.57264 170.91983 34672 ft 483 kts 35°
2026-05-07 07:54 53.62688 170.98665 34670 ft 483 kts 35°
2026-05-07 07:54 53.68066 171.05306 34672 ft 483 kts 35°
2026-05-07 07:55 53.73480 171.12017 34668 ft 483 kts 36°
2026-05-07 07:55 53.78899 171.18751 34671 ft 483 kts 36°
2026-05-07 07:56 53.84301 171.25493 34673 ft 483 kts 36°
2026-05-07 07:56 53.89705 171.32260 34674 ft 483 kts 36°
2026-05-07 07:57 53.95073 171.39002 34681 ft 483 kts 36°
2026-05-07 07:57 54.00468 171.45801 34677 ft 482 kts 36°
2026-05-07 07:58 54.05864 171.52620 34678 ft 483 kts 36°
2026-05-07 07:58 54.11240 171.59442 34681 ft 481 kts 37°
2026-05-07 07:59 54.16580 171.66243 34681 ft 482 kts 37°
2026-05-07 07:59 54.21962 171.73110 34689 ft 483 kts 37°
2026-05-07 08:00 54.27334 171.79993 34686 ft 482 kts 37°
2026-05-07 08:00 54.32708 171.86895 34687 ft 482 kts 37°
2026-05-07 08:01 54.38052 171.93795 34698 ft 481 kts 37°
2026-05-07 08:01 54.43371 172.00674 34690 ft 480 kts 38°
2026-05-07 08:02 54.48708 172.07601 34700 ft 482 kts 38°
2026-05-07 08:02 54.54056 172.14564 34696 ft 481 kts 38°
2026-05-07 08:03 54.59381 172.21522 34695 ft 480 kts 38°
2026-05-07 08:03 54.64659 172.28442 34701 ft 480 kts 38°
2026-05-07 08:04 54.69975 172.35437 34701 ft 480 kts 38°
2026-05-07 08:04 54.75283 172.42449 34697 ft 481 kts 38°
2026-05-07 08:05 54.80575 172.49460 34707 ft 477 kts 39°
2026-05-07 08:05 54.85809 172.56420 34706 ft 478 kts 39°
2026-05-07 08:06 54.91079 172.63451 34717 ft 478 kts 39°
2026-05-07 08:06 54.96347 172.70501 34717 ft 478 kts 39°
2026-05-07 08:07 55.01610 172.77572 34719 ft 478 kts 39°
2026-05-07 08:07 55.06868 172.84657 34713 ft 478 kts 39°
2026-05-07 08:08 55.12085 172.91707 34725 ft 477 kts 40°
2026-05-07 08:08 55.17322 172.98809 34727 ft 477 kts 40°
2026-05-07 08:09 55.22562 173.05947 34723 ft 477 kts 40°
2026-05-07 08:09 55.27792 173.13092 34727 ft 477 kts 40°
2026-05-07 08:10 55.32986 173.20210 34730 ft 477 kts 40°
2026-05-07 08:10 55.38206 173.27385 34737 ft 476 kts 40°
2026-05-07 08:11 55.43415 173.34575 34730 ft 476 kts 41°
2026-05-07 08:11 55.48624 173.41782 34738 ft 476 kts 41°
2026-05-07 08:12 55.53822 173.49010 34743 ft 476 kts 41°
2026-05-07 08:12 55.58984 173.56213 34747 ft 476 kts 41°
2026-05-07 08:13 55.64179 173.63480 34748 ft 475 kts 41°
2026-05-07 08:13 55.69355 173.70747 34749 ft 475 kts 41°
2026-05-07 08:14 55.74528 173.78040 34760 ft 475 kts 42°
2026-05-07 08:14 55.79698 173.85342 34758 ft 475 kts 42°
2026-05-07 08:15 55.84830 173.92622 34765 ft 475 kts 42°
2026-05-07 08:15 55.89992 173.99975 34768 ft 475 kts 43°
2026-05-07 08:16 55.95140 174.07337 34770 ft 474 kts 43°
2026-05-07 08:16 56.00284 174.14712 34777 ft 474 kts 43°
2026-05-07 08:17 56.05389 174.22056 34778 ft 474 kts 43°
2026-05-07 08:17 56.10523 174.29469 34777 ft 474 kts 43°
2026-05-07 08:18 56.15651 174.36898 34786 ft 474 kts 44°
2026-05-07 08:18 56.20776 174.44349 34785 ft 473 kts 44°
2026-05-07 08:19 56.25844 174.51747 34791 ft 472 kts 44°
2026-05-07 08:19 56.30945 174.59219 34790 ft 473 kts 44°
2026-05-07 08:20 56.36038 174.66705 34791 ft 472 kts 44°
2026-05-07 08:20 56.41123 174.74204 34801 ft 472 kts 44°
2026-05-07 08:21 56.46170 174.81676 34804 ft 472 kts 44°
2026-05-07 08:21 56.51241 174.89209 34804 ft 471 kts 44°
2026-05-07 08:22 56.56309 174.96768 34811 ft 472 kts 44°
2026-05-07 08:22 56.61372 175.04343 34813 ft 472 kts 44°
2026-05-07 08:23 56.66436 175.11945 34824 ft 472 kts 45°
2026-05-07 08:23 56.71457 175.19507 34827 ft 472 kts 45°
2026-05-07 08:24 56.76503 175.27144 34831 ft 471 kts 45°
2026-05-07 08:24 56.81536 175.34782 34828 ft 469 kts 46°
2026-05-07 08:25 56.86554 175.42411 34843 ft 469 kts 46°
2026-05-07 08:25 56.91526 175.50019 34847 ft 469 kts 46°
2026-05-07 08:26 56.99016 175.61536 34859 ft 469 kts 46°
2026-05-07 08:26 57.04009 175.69236 34837 ft 469 kts 46°
2026-05-07 08:27 57.08986 175.76933 34868 ft 466 kts 47°
2026-05-07 08:27 57.13938 175.84623 34873 ft 466 kts 47°
2026-05-07 08:28 57.18852 175.92293 34872 ft 466 kts 47°
2026-05-07 08:28 57.23790 176.00024 34890 ft 465 kts 47°
2026-05-07 08:29 57.28721 176.07775 34888 ft 465 kts 47°
2026-05-07 08:29 57.33645 176.15537 34881 ft 465 kts 47°
2026-05-07 08:30 57.38520 176.23252 34905 ft 463 kts 47°
2026-05-07 08:30 57.43413 176.31028 34905 ft 463 kts 47°
2026-05-07 08:31 57.48306 176.38831 34946 ft 465 kts 47°
2026-05-07 08:31 57.53124 176.46875 35117 ft 464 kts 51°
2026-05-07 08:32 57.55390 176.51147 35274 ft 462 kts 52°
2026-05-07 08:32 57.57614 176.55471 35410 ft 462 kts 53°
2026-05-07 08:32 57.59806 176.59754 35531 ft 463 kts 52°
2026-05-07 08:32 57.62037 176.64086 35642 ft 463 kts 52°
2026-05-07 08:33 57.64283 176.68406 35805 ft 463 kts 52°
2026-05-07 08:33 57.66536 176.72706 35940 ft 464 kts 51°
2026-05-07 08:33 57.68794 176.77003 36050 ft 464 kts 51°
2026-05-07 08:33 57.71060 176.81308 36162 ft 465 kts 51°
2026-05-07 08:34 57.73330 176.85626 36277 ft 465 kts 51°
2026-05-07 08:34 57.75595 176.89942 36392 ft 465 kts 51°
2026-05-07 08:34 57.77835 176.94221 36510 ft 466 kts 51°
2026-05-07 08:34 57.80102 176.98559 36598 ft 466 kts 51°
2026-05-07 08:35 57.84636 177.07262 36799 ft 467 kts 51°
2026-05-07 08:35 57.86900 177.11624 36924 ft 467 kts 51°
2026-05-07 08:35 57.89167 177.16003 36954 ft 468 kts 51°
2026-05-07 08:36 57.93678 177.24737 36960 ft 464 kts 51°
2026-05-07 08:36 57.98159 177.33447 36967 ft 462 kts 51°
2026-05-07 08:37 58.02602 177.42123 36976 ft 463 kts 51°
2026-05-07 08:37 58.07069 177.50868 36975 ft 463 kts 51°
2026-05-07 08:38 58.11534 177.59635 36986 ft 463 kts 51°
2026-05-07 08:38 58.15962 177.68370 36990 ft 463 kts 51°
2026-05-07 08:39 58.20412 177.77190 36987 ft 463 kts 51°
2026-05-07 08:39 58.24856 177.86026 37001 ft 462 kts 51°
2026-05-07 08:40 58.29289 177.94874 37001 ft 462 kts 51°
2026-05-07 08:40 58.33686 178.03689 37007 ft 462 kts 51°
2026-05-07 08:41 58.38104 178.12579 37015 ft 462 kts 51°
2026-05-07 08:41 58.42514 178.21485 37017 ft 462 kts 51°
2026-05-07 08:42 58.46927 178.30436 37008 ft 463 kts 51°
2026-05-07 08:42 58.51330 178.39403 37019 ft 463 kts 51°
2026-05-07 08:43 58.55703 178.48337 37024 ft 463 kts 51°
2026-05-07 08:43 58.60102 178.57365 37040 ft 463 kts 51°
2026-05-07 08:44 58.64491 178.66409 37036 ft 463 kts 51°
2026-05-07 08:44 58.68875 178.75472 37016 ft 463 kts 51°
2026-05-07 08:45 58.73229 178.84510 37052 ft 464 kts 51°
2026-05-07 08:45 58.77608 178.93638 37049 ft 465 kts 51°
2026-05-07 08:46 58.81993 179.02816 37056 ft 465 kts 51°
2026-05-07 08:46 58.86369 179.12005 37057 ft 465 kts 51°
2026-05-07 08:47 58.90735 179.21230 37056 ft 465 kts 51°
2026-05-07 08:47 58.95069 179.30407 37067 ft 465 kts 51°
2026-05-07 08:48 58.99428 179.39675 37062 ft 465 kts 51°
2026-05-07 08:48 59.03791 179.48981 37069 ft 466 kts 51°
2026-05-07 08:49 59.08141 179.58309 37079 ft 465 kts 50°
2026-05-07 08:49 59.12482 179.67654 37080 ft 465 kts 50°
2026-05-07 08:50 59.16781 179.76947 37075 ft 465 kts 50°
2026-05-07 08:50 59.21104 179.86332 37077 ft 465 kts 51°
2026-05-07 08:51 59.25419 179.95739 37069 ft 464 kts 51°
2026-05-07 08:51 59.29726 -179.94833 37093 ft 465 kts 51°
2026-05-07 08:52 59.33998 -179.85455 37094 ft 464 kts 51°
2026-05-07 08:52 59.38282 -179.75996 37099 ft 464 kts 51°
2026-05-07 08:53 59.42563 -179.66517 37099 ft 464 kts 51°
2026-05-07 08:53 59.46836 -179.57007 37100 ft 464 kts 51°
2026-05-07 08:54 59.51104 -179.47479 37110 ft 464 kts 51°
2026-05-07 08:54 59.55340 -179.37985 37111 ft 464 kts 51°
2026-05-07 08:55 59.59589 -179.28407 37113 ft 464 kts 51°
2026-05-07 08:55 59.63830 -179.18807 37119 ft 463 kts 51°
2026-05-07 08:56 59.68054 -179.09211 37121 ft 462 kts 51°
2026-05-07 08:56 59.72264 -178.99600 37128 ft 462 kts 51°
2026-05-07 08:57 59.76451 -178.90011 37127 ft 463 kts 51°
2026-05-07 08:57 59.80647 -178.80358 37127 ft 462 kts 51°
2026-05-07 08:58 59.84838 -178.70685 37135 ft 462 kts 52°
2026-05-07 08:58 59.89021 -178.60979 37135 ft 461 kts 51°
2026-05-07 08:59 59.93151 -178.51361 37138 ft 460 kts 51°
2026-05-07 08:59 59.97302 -178.41647 37140 ft 460 kts 51°
2026-05-07 09:00 60.01442 -178.31926 37146 ft 459 kts 51°
2026-05-07 09:00 60.05576 -178.22171 37152 ft 460 kts 51°
2026-05-07 09:01 60.09669 -178.12458 37151 ft 459 kts 51°
2026-05-07 09:01 60.13786 -178.02661 37151 ft 459 kts 51°
2026-05-07 09:02 60.17884 -177.92832 37149 ft 459 kts 53°
2026-05-07 09:02 60.21250 -177.81993 37154 ft 457 kts 62°
2026-05-07 09:03 60.24211 -177.70750 37153 ft 458 kts 63°
2026-05-07 09:03 60.27117 -177.59333 37160 ft 458 kts 63°
2026-05-07 09:04 60.30011 -177.47918 37163 ft 458 kts 63°
2026-05-07 09:04 60.32915 -177.36475 37163 ft 458 kts 64°
2026-05-07 09:05 60.35808 -177.25036 37161 ft 457 kts 63°
2026-05-07 09:05 60.38665 -177.13664 37164 ft 456 kts 63°
2026-05-07 09:06 60.41530 -177.02198 37166 ft 457 kts 63°
2026-05-07 09:06 60.44390 -176.90710 37167 ft 456 kts 63°
2026-05-07 09:07 60.47231 -176.79242 37167 ft 455 kts 64°
2026-05-07 09:07 60.50041 -176.67833 37170 ft 455 kts 64°
2026-05-07 09:08 60.52858 -176.56331 37170 ft 455 kts 64°
2026-05-07 09:08 60.55663 -176.44824 37170 ft 454 kts 64°
2026-05-07 09:09 60.58458 -176.33295 37170 ft 454 kts 64°
2026-05-07 09:09 60.61221 -176.21842 37176 ft 454 kts 64°
2026-05-07 09:10 60.63994 -176.10283 37177 ft 454 kts 64°
2026-05-07 09:10 60.66758 -175.98697 37178 ft 454 kts 64°
2026-05-07 09:11 60.69512 -175.87100 37182 ft 454 kts 64°
2026-05-07 09:11 60.72224 -175.75588 37178 ft 453 kts 64°
2026-05-07 09:12 60.74948 -175.63984 37185 ft 453 kts 64°
2026-05-07 09:12 60.77663 -175.52364 37175 ft 453 kts 64°
2026-05-07 09:13 60.80361 -175.40719 37178 ft 453 kts 65°
2026-05-07 09:13 60.83059 -175.29039 37178 ft 453 kts 65°
2026-05-07 09:14 60.85727 -175.17450 37183 ft 451 kts 64°
2026-05-07 09:14 60.88395 -175.05813 37177 ft 451 kts 65°
2026-05-07 09:15 60.91045 -174.94125 37181 ft 452 kts 65°
2026-05-07 09:15 60.93689 -174.82412 37182 ft 451 kts 65°
2026-05-07 09:16 60.96320 -174.70707 37190 ft 450 kts 65°
2026-05-07 09:16 60.98914 -174.59109 37181 ft 448 kts 65°
2026-05-07 09:17 61.01512 -174.47435 37183 ft 448 kts 65°
2026-05-07 09:17 61.04096 -174.35747 37183 ft 447 kts 65°
2026-05-07 09:18 61.06663 -174.24053 37184 ft 448 kts 65°
2026-05-07 09:18 61.09204 -174.12410 37184 ft 447 kts 65°
2026-05-07 09:19 61.11757 -174.00676 37184 ft 447 kts 65°
2026-05-07 09:19 61.14300 -173.88940 37184 ft 447 kts 65°
2026-05-07 09:20 61.16827 -173.77184 37184 ft 447 kts 65°
2026-05-07 09:20 61.19328 -173.65481 37187 ft 447 kts 65°
2026-05-07 09:21 61.21836 -173.53676 37183 ft 448 kts 65°
2026-05-07 09:21 61.24338 -173.41843 37185 ft 447 kts 65°
2026-05-07 09:22 61.26825 -173.29999 37184 ft 447 kts 65°
2026-05-07 09:22 61.29288 -173.18217 37184 ft 447 kts 65°
2026-05-07 09:23 61.31757 -173.06332 37184 ft 448 kts 65°
2026-05-07 09:23 61.34218 -172.94421 37186 ft 448 kts 65°
2026-05-07 09:24 61.36670 -172.82489 37184 ft 448 kts 65°
2026-05-07 09:24 61.39096 -172.70613 37184 ft 448 kts 65°
2026-05-07 09:25 61.41528 -172.58637 37184 ft 448 kts 65°
2026-05-07 09:25 61.43946 -172.46641 37185 ft 448 kts 65°
2026-05-07 09:26 61.46354 -172.34638 37184 ft 448 kts 65°
2026-05-07 09:26 61.48756 -172.22604 37186 ft 448 kts 65°
2026-05-07 09:27 61.51129 -172.10621 37186 ft 449 kts 65°
2026-05-07 09:28 61.54696 -171.92482 37187 ft 449 kts 65°
2026-05-07 09:28 61.57062 -171.80375 37187 ft 448 kts 66°
2026-05-07 09:29 61.59418 -171.68251 37188 ft 449 kts 66°
2026-05-07 09:29 61.61742 -171.56184 37187 ft 448 kts 66°
2026-05-07 09:30 61.64073 -171.44027 37192 ft 448 kts 66°
2026-05-07 09:30 61.66399 -171.31843 37192 ft 449 kts 65°
2026-05-07 09:31 61.68719 -171.19618 37189 ft 450 kts 66°
2026-05-07 09:31 61.71007 -171.07443 37186 ft 450 kts 66°
2026-05-07 09:32 61.73300 -170.95173 37187 ft 450 kts 66°
2026-05-07 09:32 61.75587 -170.82873 37186 ft 450 kts 66°
2026-05-07 09:33 61.77864 -170.70559 37206 ft 450 kts 66°
2026-05-07 09:33 61.80129 -170.58219 37186 ft 451 kts 66°
2026-05-07 09:34 61.82372 -170.45931 37186 ft 451 kts 66°
2026-05-07 09:34 61.84619 -170.33528 37187 ft 451 kts 66°
2026-05-07 09:35 61.86853 -170.21113 37185 ft 451 kts 66°
2026-05-07 09:35 61.89078 -170.08680 37186 ft 451 kts 66°
2026-05-07 09:36 61.91291 -169.96328 37188 ft 451 kts 66°
2026-05-07 09:36 61.93571 -169.83932 37190 ft 451 kts 65°
2026-05-07 09:37 61.95854 -169.71498 37189 ft 452 kts 65°
2026-05-07 09:37 61.98115 -169.59043 37195 ft 452 kts 66°
2026-05-07 09:38 62.00346 -169.46636 37195 ft 452 kts 66°
2026-05-07 09:38 62.02580 -169.34134 37195 ft 452 kts 66°
2026-05-07 09:39 62.04805 -169.21609 37195 ft 452 kts 66°
2026-05-07 09:39 62.07016 -169.09065 37201 ft 452 kts 66°
2026-05-07 09:40 62.09220 -168.96486 37196 ft 453 kts 66°
2026-05-07 09:40 62.11406 -168.83935 37195 ft 454 kts 66°
2026-05-07 09:41 62.13596 -168.71273 37201 ft 454 kts 66°
2026-05-07 09:41 62.15775 -168.58590 37197 ft 454 kts 66°
2026-05-07 09:42 62.17941 -168.45885 37195 ft 454 kts 66°
2026-05-07 09:42 62.20094 -168.33163 37197 ft 455 kts 66°
2026-05-07 09:43 62.22228 -168.20488 37199 ft 456 kts 66°
2026-05-07 09:43 62.24369 -168.07688 37197 ft 456 kts 66°
2026-05-07 09:44 62.26497 -167.94862 37200 ft 456 kts 66°
2026-05-07 09:44 62.28616 -167.82013 37199 ft 456 kts 66°
2026-05-07 09:45 62.30720 -167.69151 37201 ft 457 kts 66°
2026-05-07 09:45 62.32805 -167.56331 37198 ft 457 kts 66°
2026-05-07 09:46 62.34893 -167.43397 37204 ft 457 kts 67°
2026-05-07 09:46 62.36972 -167.30439 37201 ft 459 kts 67°
2026-05-07 09:47 62.39036 -167.17439 37198 ft 459 kts 67°
2026-05-07 09:47 62.41095 -167.04391 37202 ft 459 kts 67°
2026-05-07 09:48 62.43127 -166.91431 37198 ft 459 kts 67°
2026-05-07 09:48 62.45160 -166.78353 37199 ft 459 kts 67°
2026-05-07 09:49 62.47183 -166.65253 37206 ft 460 kts 67°
2026-05-07 09:49 62.49199 -166.52135 37195 ft 461 kts 67°
2026-05-07 09:50 62.51192 -166.39035 37197 ft 462 kts 67°
2026-05-07 09:50 62.53189 -166.25806 37198 ft 462 kts 68°
2026-05-07 09:51 62.55173 -166.12561 37195 ft 462 kts 68°
2026-05-07 09:51 62.57146 -165.99301 37199 ft 462 kts 68°
2026-05-07 09:52 62.59106 -165.86019 37216 ft 462 kts 68°
2026-05-07 09:52 62.61047 -165.72777 37194 ft 464 kts 68°
2026-05-07 09:53 62.62989 -165.59412 37195 ft 464 kts 68°
2026-05-07 09:53 62.64917 -165.46033 37194 ft 464 kts 68°
2026-05-07 09:54 62.66834 -165.32625 37217 ft 464 kts 68°
2026-05-07 09:54 62.68729 -165.19272 37194 ft 465 kts 68°
2026-05-07 09:55 62.70627 -165.05798 37196 ft 466 kts 68°
2026-05-07 09:55 62.72513 -164.92296 37202 ft 466 kts 69°
2026-05-07 09:56 62.74394 -164.78712 37200 ft 468 kts 69°
2026-05-07 09:56 62.76249 -164.65202 37202 ft 468 kts 69°
2026-05-07 09:57 62.78069 -164.51559 37198 ft 470 kts 72°
2026-05-07 09:57 62.79074 -164.37370 37202 ft 474 kts 78°
2026-05-07 09:58 62.79799 -164.23039 37201 ft 475 kts 79°
2026-05-07 09:58 62.80465 -164.08673 37200 ft 475 kts 80°
2026-05-07 09:59 62.81122 -163.94414 37196 ft 475 kts 79°
2026-05-07 09:59 62.81781 -163.80049 37206 ft 475 kts 79°
2026-05-07 10:00 62.82430 -163.65639 37195 ft 476 kts 80°
2026-05-07 10:00 62.83066 -163.51208 37194 ft 477 kts 80°
2026-05-07 10:01 62.83683 -163.36847 37212 ft 477 kts 80°
2026-05-07 10:01 62.84289 -163.22360 37200 ft 479 kts 81°
2026-05-07 10:02 62.84882 -163.07825 37202 ft 480 kts 81°
2026-05-07 10:02 62.85461 -162.93274 37199 ft 480 kts 81°
2026-05-07 10:03 62.86023 -162.78728 37204 ft 480 kts 81°
2026-05-07 10:03 62.86568 -162.64268 37209 ft 480 kts 81°
2026-05-07 10:04 62.87104 -162.49688 37209 ft 481 kts 82°
2026-05-07 10:04 62.87627 -162.35040 37208 ft 483 kts 82°
2026-05-07 10:05 62.88133 -162.20364 37207 ft 483 kts 82°
2026-05-07 10:05 62.88623 -162.05677 37196 ft 483 kts 82°
2026-05-07 10:06 62.89096 -161.91089 37216 ft 483 kts 82°
2026-05-07 10:06 62.89560 -161.76386 37228 ft 484 kts 82°
2026-05-07 10:07 62.90010 -161.61628 37212 ft 486 kts 83°
2026-05-07 10:07 62.90370 -161.49337 37233 ft 486 kts 83°
2026-05-07 10:08 62.90857 -161.32140 37278 ft 486 kts 83°
2026-05-07 10:08 62.91261 -161.17335 37272 ft 486 kts 83°
2026-05-07 10:09 62.91648 -161.02520 37313 ft 486 kts 83°
2026-05-07 10:09 62.91960 -160.90202 37314 ft 487 kts 84°
2026-05-07 10:10 62.92318 -160.75330 37335 ft 488 kts 84°
2026-05-07 10:10 62.92661 -160.60447 37336 ft 488 kts 84°
2026-05-07 10:11 62.92991 -160.45553 37325 ft 489 kts 84°
2026-05-07 10:11 62.93302 -160.30746 37275 ft 488 kts 84°
2026-05-07 10:12 62.93599 -160.15847 37216 ft 489 kts 85°
2026-05-07 10:12 62.93882 -160.00921 37207 ft 490 kts 85°
2026-05-07 10:13 62.94150 -159.85969 37164 ft 491 kts 85°
2026-05-07 10:13 62.94399 -159.70987 37153 ft 491 kts 85°
2026-05-07 10:14 62.94631 -159.56110 37147 ft 490 kts 85°
2026-05-07 10:14 62.94854 -159.41144 37148 ft 490 kts 85°
2026-05-07 10:15 62.95058 -159.26162 37145 ft 491 kts 86°
2026-05-07 10:15 62.95246 -159.11156 37143 ft 491 kts 86°
2026-05-07 10:16 62.95418 -158.96257 37144 ft 491 kts 86°
2026-05-07 10:16 62.95575 -158.81247 37146 ft 491 kts 86°
2026-05-07 10:17 62.95717 -158.66242 37140 ft 491 kts 86°
2026-05-07 10:17 62.95842 -158.51236 37151 ft 492 kts 87°
2026-05-07 10:18 62.95952 -158.36217 37146 ft 492 kts 87°
2026-05-07 10:18 62.96044 -158.21279 37140 ft 492 kts 88°
2026-05-07 10:19 62.96120 -158.06237 37149 ft 492 kts 88°
2026-05-07 10:19 62.96181 -157.91190 37143 ft 492 kts 88°
2026-05-07 10:20 62.96226 -157.76147 37138 ft 492 kts 88°
2026-05-07 10:20 62.96256 -157.61200 37137 ft 493 kts 88°
2026-05-07 10:21 62.96272 -157.46147 37132 ft 493 kts 89°
2026-05-07 10:21 62.96269 -157.31083 37131 ft 493 kts 89°
2026-05-07 10:22 62.96250 -157.16022 37132 ft 493 kts 89°
2026-05-07 10:22 62.96214 -157.01062 37129 ft 493 kts 89°
2026-05-07 10:23 62.96164 -156.86012 37123 ft 493 kts 89°
2026-05-07 10:23 62.96098 -156.70943 37125 ft 493 kts 90°
2026-05-07 10:24 62.96014 -156.55865 37111 ft 493 kts 90°
2026-05-07 10:24 62.95916 -156.40790 37102 ft 493 kts 90°
2026-05-07 10:25 62.95799 -156.25847 37095 ft 493 kts 90°
2026-05-07 10:25 62.95667 -156.10777 37093 ft 494 kts 90°
2026-05-07 10:26 62.95523 -155.95706 37092 ft 493 kts 90°